Time,TemperatureF,DewpointF,PressureIn,WindDirection,WindDirectionDegrees,WindSpeedMPH,WindSpeedGustMPH,Humidity,HourlyPrecipIn,Conditions,Clouds,dailyrainin,SoftwareType,DateUTC
2013-02-14 00:00:00,40.4,35.6,29.88,East,90,0.0,0.0,83,-99.99,,,-99.99,WSDL version 423,2013-02-14 06:00:00,
2013-02-14 00:05:00,40.3,35.3,29.85,SSE,149,0.0,0.0,82,-99.99,,,-99.99,WSDL version 423,2013-02-14 06:05:00,
2013-02-14 00:06:00,40.3,35.3,29.85,SE,140,0.0,0.0,82,-99.99,,,-99.99,WSDL version 423,2013-02-14 06:06:00,
2013-02-14 00:08:00,40.3,35.3,29.85,South,169,0.0,0.0,82,-99.99,,,-99.99,WSDL version 423,2013-02-14 06:08:00,
2013-02-14 00:11:00,40.2,35.2,29.85,SSE,148,0.0,0.0,82,-99.99,,,-99.99,WSDL version 423,2013-02-14 06:11:00,
2013-02-14 00:12:00,40.1,35.1,29.85,SE,135,0.0,0.0,82,-99.99,,,-99.99,WSDL version 423,2013-02-14 06:12:00,
2013-02-14 00:17:00,40.2,35.5,29.88,SE,146,0.0,0.0,83,-99.99,,,-99.99,WSDL version 423,2013-02-14 06:17:00,
2013-02-14 00:18:00,40.2,35.6,29.88,West,275,0.0,0.0,83,-99.99,,,-99.99,WSDL version 423,2013-02-14 06:18:00,
2013-02-14 00:20:00,40.2,35.6,29.88,SSE,148,0.0,0.0,83,-99.99,,,-99.99,WSDL version 423,2013-02-14 06:20:00,
2013-02-14 00:22:00,40.3,35.7,29.88,SSE,149,0.0,0.0,84,-99.99,,,-99.99,WSDL version 423,2013-02-14 06:22:00,
2013-02-14 00:24:00,40.3,35.8,29.88,SE,138,0.0,0.0,84,-99.99,,,-99.99,WSDL version 423,2013-02-14 06:24:00,
2013-02-14 00:26:00,40.3,35.9,29.88,ESE,121,0.0,0.0,84,-99.99,,,-99.99,WSDL version 423,2013-02-14 06:26:00,
2013-02-14 00:28:00,40.3,35.9,29.88,South,170,0.0,0.0,84,-99.99,,,-99.99,WSDL version 423,2013-02-14 06:28:00,
2013-02-14 00:29:00,40.3,35.8,29.88,South,180,0.0,0.0,83,-99.99,,,-99.99,WSDL version 423,2013-02-14 06:29:00,
2013-02-14 00:34:00,40.3,35.8,29.88,SSE,149,0.0,0.0,84,-99.99,,,-99.99,WSDL version 423,2013-02-14 06:34:00,
2013-02-14 00:38:00,40.3,35.7,29.88,SE,135,0.0,0.0,84,-99.99,,,-99.99,WSDL version 423,2013-02-14 06:38:00,
2013-02-14 00:39:00,40.3,35.7,29.88,ESE,118,0.0,0.0,84,-99.99,,,-99.99,WSDL version 423,2013-02-14 06:39:00,
2013-02-14 00:41:00,40.3,35.9,29.88,South,170,0.0,0.0,84,-99.99,,,-99.99,WSDL version 423,2013-02-14 06:41:00,
2013-02-14 00:46:00,40.3,36.0,29.88,South,185,0.0,0.0,84,-99.99,,,-99.99,WSDL version 423,2013-02-14 06:46:00,
2013-02-14 00:47:00,40.3,36.0,29.88,SSE,163,0.0,0.0,84,-99.99,,,-99.99,WSDL version 423,2013-02-14 06:47:00,
2013-02-14 00:48:00,40.3,36.0,29.88,SSE,150,0.0,0.0,84,-99.99,,,-99.99,WSDL version 423,2013-02-14 06:48:00,
2013-02-14 00:49:00,40.3,36.0,29.88,SE,140,0.0,0.0,84,-99.99,,,-99.99,WSDL version 423,2013-02-14 06:49:00,
2013-02-14 00:52:00,40.2,35.9,29.88,SE,145,0.0,0.0,84,-99.99,,,-99.99,WSDL version 423,2013-02-14 06:52:00,
2013-02-14 00:53:00,40.2,35.9,29.88,SE,143,0.0,0.0,84,-99.99,,,-99.99,WSDL version 423,2013-02-14 06:53:00,
2013-02-14 00:58:00,40.1,35.7,29.88,SSE,152,0.0,0.0,83,-99.99,,,-99.99,WSDL version 423,2013-02-14 06:58:00,
2013-02-14 01:00:00,40.1,35.7,29.88,South,180,0.0,0.0,84,-99.99,,,-99.99,WSDL version 423,2013-02-14 07:00:00,
2013-02-14 01:03:00,40.1,35.8,29.85,SE,130,0.0,0.0,84,-99.99,,,-99.99,WSDL version 423,2013-02-14 07:03:00,
2013-02-14 01:07:00,40.1,35.8,29.85,SSE,150,0.0,0.0,84,-99.99,,,-99.99,WSDL version 423,2013-02-14 07:07:00,
2013-02-14 01:08:00,40.1,35.8,29.85,SE,146,0.0,0.0,84,-99.99,,,-99.99,WSDL version 423,2013-02-14 07:08:00,
2013-02-14 01:12:00,40.1,35.8,29.85,SE,143,0.0,0.0,84,-99.99,,,-99.99,WSDL version 423,2013-02-14 07:12:00,
2013-02-14 01:17:00,40.1,35.8,29.85,WSW,250,0.0,0.0,84,-99.99,,,-99.99,WSDL version 423,2013-02-14 07:17:00,
2013-02-14 01:18:00,40.1,35.8,29.85,SE,143,0.0,0.0,84,-99.99,,,-99.99,WSDL version 423,2013-02-14 07:18:00,
2013-02-14 01:22:00,40.1,35.8,29.85,SE,141,0.0,0.0,86,-99.99,,,-99.99,WSDL version 423,2013-02-14 07:22:00,
2013-02-14 01:23:00,40.1,35.9,29.85,SE,143,0.0,0.0,86,-99.99,,,-99.99,WSDL version 423,2013-02-14 07:23:00,
2013-02-14 01:24:00,40.1,35.9,29.85,SSE,153,0.0,0.0,86,-99.99,,,-99.99,WSDL version 423,2013-02-14 07:24:00,
2013-02-14 01:27:00,40.1,36.1,29.85,SSE,155,0.0,0.0,86,-99.99,,,-99.99,WSDL version 423,2013-02-14 07:27:00,
2013-02-14 01:28:00,40.1,36.1,29.85,SE,145,0.0,0.0,86,-99.99,,,-99.99,WSDL version 423,2013-02-14 07:28:00,
2013-02-14 01:30:00,40.1,36.1,29.88,SE,143,0.0,0.0,86,-99.99,,,-99.99,WSDL version 423,2013-02-14 07:30:00,
2013-02-14 01:31:00,40.1,36.1,29.88,SSE,150,0.0,0.0,86,-99.99,,,-99.99,WSDL version 423,2013-02-14 07:31:00,
2013-02-14 01:33:00,40.1,36.1,29.88,SE,129,0.0,0.0,86,-99.99,,,-99.99,WSDL version 423,2013-02-14 07:33:00,
2013-02-14 01:36:00,40.1,36.1,29.88,SE,141,0.0,0.0,86,-99.99,,,-99.99,WSDL version 423,2013-02-14 07:36:00,
2013-02-14 01:41:00,40.1,36.1,29.88,SE,124,0.0,0.0,86,-99.99,,,-99.99,WSDL version 423,2013-02-14 07:41:00,
2013-02-14 01:44:00,40.1,36.1,29.88,East,85,0.0,0.0,86,-99.99,,,-99.99,WSDL version 423,2013-02-14 07:44:00,
2013-02-14 01:45:00,40.1,36.2,29.88,SE,128,0.0,0.0,87,-99.99,,,-99.99,WSDL version 423,2013-02-14 07:45:00,
2013-02-14 01:46:00,40.1,36.2,29.85,SE,141,0.0,0.0,87,-99.99,,,-99.99,WSDL version 423,2013-02-14 07:46:00,
2013-02-14 01:51:00,40.1,36.4,29.85,SSE,152,0.0,0.0,87,-99.99,,,-99.99,WSDL version 423,2013-02-14 07:51:00,
2013-02-14 01:52:00,40.1,36.4,29.85,SE,138,0.0,0.0,87,-99.99,,,-99.99,WSDL version 423,2013-02-14 07:52:00,
2013-02-14 01:55:00,40.1,36.4,29.85,SSE,165,0.0,0.0,87,-99.99,,,-99.99,WSDL version 423,2013-02-14 07:55:00,
2013-02-14 01:56:00,40.1,36.4,29.85,SSE,158,0.0,0.0,87,-99.99,,,-99.99,WSDL version 423,2013-02-14 07:56:00,
2013-02-14 01:58:00,40.1,36.4,29.85,SE,140,0.0,0.0,87,-99.99,,,-99.99,WSDL version 423,2013-02-14 07:58:00,
2013-02-14 02:00:00,40.1,36.4,29.85,SSE,152,0.0,0.0,87,-99.99,,,-99.99,WSDL version 423,2013-02-14 08:00:00,
2013-02-14 02:01:00,40.1,36.4,29.85,SE,141,0.0,0.0,87,-99.99,,,-99.99,WSDL version 423,2013-02-14 08:01:00,
2013-02-14 02:03:00,40.1,36.4,29.85,East,100,0.0,0.0,87,-99.99,,,-99.99,WSDL version 423,2013-02-14 08:03:00,
2013-02-14 02:05:00,40.0,36.4,29.85,West,270,0.0,0.0,87,-99.99,,,-99.99,WSDL version 423,2013-02-14 08:05:00,
2013-02-14 02:07:00,40.0,36.4,29.85,ENE,73,0.0,0.0,87,-99.99,,,-99.99,WSDL version 423,2013-02-14 08:07:00,
2013-02-14 02:08:00,40.0,36.4,29.85,SSE,152,0.0,0.0,87,-99.99,,,-99.99,WSDL version 423,2013-02-14 08:08:00,
2013-02-14 02:11:00,40.0,36.3,29.85,SE,135,0.0,0.0,87,-99.99,,,-99.99,WSDL version 423,2013-02-14 08:11:00,
2013-02-14 02:13:00,39.9,36.3,29.85,ESE,123,0.0,0.0,87,-99.99,,,-99.99,WSDL version 423,2013-02-14 08:13:00,
2013-02-14 02:16:00,39.9,36.3,29.85,NW,323,0.0,0.0,87,-99.99,,,-99.99,WSDL version 423,2013-02-14 08:16:00,
2013-02-14 02:17:00,39.9,36.3,29.85,SE,130,0.0,0.0,87,-99.99,,,-99.99,WSDL version 423,2013-02-14 08:17:00,
2013-02-14 02:20:00,39.9,36.3,29.85,SE,145,0.0,0.0,87,-99.99,,,-99.99,WSDL version 423,2013-02-14 08:20:00,
2013-02-14 02:21:00,39.9,36.2,29.85,SSE,161,0.0,0.0,86,-99.99,,,-99.99,WSDL version 423,2013-02-14 08:21:00,
2013-02-14 02:24:00,39.9,36.0,29.85,SE,140,0.0,0.0,86,-99.99,,,-99.99,WSDL version 423,2013-02-14 08:24:00,
2013-02-14 02:25:00,39.9,36.0,29.85,SE,146,0.0,0.0,87,-99.99,,,-99.99,WSDL version 423,2013-02-14 08:25:00,
2013-02-14 02:30:00,39.9,36.3,29.85,SSE,153,0.0,0.0,87,-99.99,,,-99.99,WSDL version 423,2013-02-14 08:30:00,
2013-02-14 02:32:00,39.9,36.3,29.85,SSE,155,0.0,0.0,87,-99.99,,,-99.99,WSDL version 423,2013-02-14 08:32:00,
2013-02-14 02:33:00,40.0,36.3,29.85,SSE,150,0.0,0.0,87,-99.99,,,-99.99,WSDL version 423,2013-02-14 08:33:00,
2013-02-14 02:35:00,40.0,36.4,29.85,SE,132,0.0,0.0,87,-99.99,,,-99.99,WSDL version 423,2013-02-14 08:35:00,
2013-02-14 02:38:00,40.0,36.3,29.85,SSE,168,0.0,0.0,87,-99.99,,,-99.99,WSDL version 423,2013-02-14 08:38:00,
2013-02-14 02:42:00,40.0,36.4,29.85,South,174,0.0,0.0,87,-99.99,,,-99.99,WSDL version 423,2013-02-14 08:42:00,
2013-02-14 02:43:00,40.1,36.4,29.85,South,169,0.0,0.0,87,-99.99,,,-99.99,WSDL version 423,2013-02-14 08:43:00,
2013-02-14 02:46:00,40.1,36.4,29.85,SE,146,0.0,0.0,87,-99.99,,,-99.99,WSDL version 423,2013-02-14 08:46:00,
2013-02-14 02:47:00,40.1,36.4,29.85,SSE,155,0.0,0.0,87,-99.99,,,-99.99,WSDL version 423,2013-02-14 08:47:00,
2013-02-14 02:51:00,40.1,36.4,29.85,SSE,158,0.0,0.0,87,-99.99,,,-99.99,WSDL version 423,2013-02-14 08:51:00,
2013-02-14 02:52:00,40.1,36.4,29.85,SE,130,0.0,0.0,87,-99.99,,,-99.99,WSDL version 423,2013-02-14 08:52:00,
2013-02-14 02:56:00,40.1,36.4,29.85,SSE,151,0.0,0.0,87,-99.99,,,-99.99,WSDL version 423,2013-02-14 08:56:00,
2013-02-14 02:57:00,40.1,36.4,29.85,South,177,0.0,0.0,87,-99.99,,,-99.99,WSDL version 423,2013-02-14 08:57:00,
2013-02-14 02:58:00,40.1,36.4,29.85,SE,143,0.0,0.0,87,-99.99,,,-99.99,WSDL version 423,2013-02-14 08:58:00,
2013-02-14 02:59:00,40.1,36.4,29.85,SE,143,0.0,0.0,87,-99.99,,,-99.99,WSDL version 423,2013-02-14 08:59:00,
2013-02-14 03:04:00,39.9,36.3,29.85,SSE,155,0.0,0.0,87,-99.99,,,-99.99,WSDL version 423,2013-02-14 09:04:00,
2013-02-14 03:05:00,39.9,36.3,29.85,SSE,168,0.0,0.0,87,-99.99,,,-99.99,WSDL version 423,2013-02-14 09:05:00,
2013-02-14 03:06:00,39.9,36.3,29.85,SSE,165,0.0,0.0,87,-99.99,,,-99.99,WSDL version 423,2013-02-14 09:06:00,
2013-02-14 03:09:00,40.0,36.3,29.85,SSE,148,0.0,0.0,87,-99.99,,,-99.99,WSDL version 423,2013-02-14 09:09:00,
2013-02-14 03:10:00,40.0,36.3,29.85,SSE,160,0.0,0.0,87,-99.99,,,-99.99,WSDL version 423,2013-02-14 09:10:00,
2013-02-14 03:11:00,40.0,36.4,29.85,SSE,160,0.0,0.0,87,-99.99,,,-99.99,WSDL version 423,2013-02-14 09:11:00,
2013-02-14 03:15:00,40.0,36.5,29.85,SE,135,0.0,0.0,87,-99.99,,,-99.99,WSDL version 423,2013-02-14 09:15:00,
2013-02-14 03:16:00,40.0,36.5,29.85,SE,130,0.0,0.0,87,-99.99,,,-99.99,WSDL version 423,2013-02-14 09:16:00,
2013-02-14 03:17:00,40.0,36.4,29.85,SE,124,0.0,0.0,87,-99.99,,,-99.99,WSDL version 423,2013-02-14 09:17:00,
2013-02-14 03:20:00,39.9,36.3,29.85,SSE,150,0.0,0.0,87,-99.99,,,-99.99,WSDL version 423,2013-02-14 09:20:00,
2013-02-14 03:24:00,39.9,36.3,29.85,SSE,149,0.0,0.0,87,-99.99,,,-99.99,WSDL version 423,2013-02-14 09:24:00,
2013-02-14 03:26:00,39.9,36.3,29.85,SE,135,0.0,0.0,87,-99.99,,,-99.99,WSDL version 423,2013-02-14 09:26:00,
2013-02-14 03:29:00,39.9,36.4,29.85,North,0,0.0,0.0,88,-99.99,,,-99.99,WSDL version 423,2013-02-14 09:29:00,
2013-02-14 03:31:00,39.9,36.6,29.85,SE,143,0.0,0.0,88,-99.99,,,-99.99,WSDL version 423,2013-02-14 09:31:00,
2013-02-14 03:33:00,39.9,36.6,29.85,SSW,213,0.0,0.0,88,-99.99,,,-99.99,WSDL version 423,2013-02-14 09:33:00,
2013-02-14 03:34:00,39.9,36.6,29.85,ESE,113,0.0,0.0,88,-99.99,,,-99.99,WSDL version 423,2013-02-14 09:34:00,
2013-02-14 03:36:00,39.9,36.6,29.85,SE,140,0.0,0.0,88,-99.99,,,-99.99,WSDL version 423,2013-02-14 09:36:00,
2013-02-14 03:38:00,39.9,36.5,29.85,SE,135,0.0,0.0,87,-99.99,,,-99.99,WSDL version 423,2013-02-14 09:38:00,
2013-02-14 03:40:00,39.8,36.5,29.85,South,180,0.0,0.0,88,-99.99,,,-99.99,WSDL version 423,2013-02-14 09:40:00,
2013-02-14 03:43:00,39.7,36.4,29.85,South,169,0.0,0.0,88,-99.99,,,-99.99,WSDL version 423,2013-02-14 09:43:00,
2013-02-14 03:45:00,39.8,36.3,29.85,SSE,152,0.0,0.0,87,-99.99,,,-99.99,WSDL version 423,2013-02-14 09:45:00,
2013-02-14 03:46:00,39.8,36.3,29.85,South,169,0.0,0.0,87,-99.99,,,-99.99,WSDL version 423,2013-02-14 09:46:00,
2013-02-14 03:49:00,39.9,36.4,29.85,South,172,0.0,0.0,88,-99.99,,,-99.99,WSDL version 423,2013-02-14 09:49:00,
2013-02-14 03:51:00,39.9,36.6,29.85,SE,135,0.0,0.0,88,-99.99,,,-99.99,WSDL version 423,2013-02-14 09:51:00,
2013-02-14 03:52:00,39.9,36.6,29.85,SE,138,0.0,0.0,88,-99.99,,,-99.99,WSDL version 423,2013-02-14 09:52:00,
2013-02-14 03:54:00,39.9,36.6,29.85,SSE,158,0.0,0.0,88,-99.99,,,-99.99,WSDL version 423,2013-02-14 09:54:00,
2013-02-14 03:55:00,39.9,36.6,29.85,SSE,160,0.0,0.0,88,-99.99,,,-99.99,WSDL version 423,2013-02-14 09:55:00,
2013-02-14 03:56:00,39.9,36.6,29.85,SSE,149,0.0,0.0,88,-99.99,,,-99.99,WSDL version 423,2013-02-14 09:56:00,
2013-02-14 03:57:00,39.9,36.6,29.85,SE,140,0.0,0.0,88,-99.99,,,-99.99,WSDL version 423,2013-02-14 09:57:00,
2013-02-14 04:03:00,39.9,36.6,29.85,SSE,155,0.0,0.0,88,-99.99,,,-99.99,WSDL version 423,2013-02-14 10:03:00,
2013-02-14 04:04:00,39.9,36.6,29.85,SSE,155,0.0,0.0,88,-99.99,,,-99.99,WSDL version 423,2013-02-14 10:04:00,
2013-02-14 04:06:00,39.9,36.6,29.85,SSE,152,0.0,0.0,88,-99.99,,,-99.99,WSDL version 423,2013-02-14 10:06:00,
2013-02-14 04:09:00,39.9,36.6,29.85,SE,143,0.0,0.0,88,-99.99,,,-99.99,WSDL version 423,2013-02-14 10:09:00,
2013-02-14 04:11:00,39.9,36.6,29.85,South,180,0.0,0.0,88,-99.99,,,-99.99,WSDL version 423,2013-02-14 10:11:00,
2013-02-14 04:13:00,40.0,36.6,29.85,SSE,158,0.0,0.0,88,-99.99,,,-99.99,WSDL version 423,2013-02-14 10:13:00,
2013-02-14 04:15:00,40.1,36.7,29.85,ESE,115,0.0,0.0,88,-99.99,,,-99.99,WSDL version 423,2013-02-14 10:15:00,
2013-02-14 04:16:00,40.1,36.8,29.85,SE,135,0.0,0.0,88,-99.99,,,-99.99,WSDL version 423,2013-02-14 10:16:00,
2013-02-14 04:19:00,40.1,36.8,29.85,SE,138,0.0,0.0,88,-99.99,,,-99.99,WSDL version 423,2013-02-14 10:19:00,
2013-02-14 04:20:00,40.1,36.8,29.85,SSE,161,0.0,0.0,88,-99.99,,,-99.99,WSDL version 423,2013-02-14 10:20:00,
2013-02-14 04:21:00,40.1,36.8,29.85,SE,138,0.0,0.0,88,-99.99,,,-99.99,WSDL version 423,2013-02-14 10:21:00,
2013-02-14 04:25:00,40.1,36.7,29.85,SE,130,0.0,0.0,88,-99.99,,,-99.99,WSDL version 423,2013-02-14 10:25:00,
2013-02-14 04:26:00,40.1,36.7,29.85,SE,132,0.0,0.0,88,-99.99,,,-99.99,WSDL version 423,2013-02-14 10:26:00,
2013-02-14 04:28:00,40.1,36.8,29.85,SSE,149,0.0,0.0,88,-99.99,,,-99.99,WSDL version 423,2013-02-14 10:28:00,
2013-02-14 04:32:00,40.1,37.0,29.85,East,98,0.0,0.0,89,-99.99,,,-99.99,WSDL version 423,2013-02-14 10:32:00,
2013-02-14 04:34:00,40.1,37.1,29.85,SE,141,0.0,0.0,89,-99.99,,,-99.99,WSDL version 423,2013-02-14 10:34:00,
2013-02-14 04:35:00,40.1,37.0,29.85,SSE,152,0.0,0.0,88,-99.99,,,-99.99,WSDL version 423,2013-02-14 10:35:00,
2013-02-14 04:39:00,40.1,36.8,29.85,SE,125,0.0,0.0,88,-99.99,,,-99.99,WSDL version 423,2013-02-14 10:39:00,
2013-02-14 04:40:00,40.1,36.8,29.85,SE,138,0.0,0.0,88,-99.99,,,-99.99,WSDL version 423,2013-02-14 10:40:00,
2013-02-14 04:43:00,40.1,36.8,29.85,SE,143,0.0,0.0,88,-99.99,,,-99.99,WSDL version 423,2013-02-14 10:43:00,
2013-02-14 04:45:00,40.1,36.8,29.85,SE,135,0.0,0.0,88,-99.99,,,-99.99,WSDL version 423,2013-02-14 10:45:00,
2013-02-14 04:48:00,40.1,36.8,29.85,SSE,160,0.0,0.0,88,-99.99,,,-99.99,WSDL version 423,2013-02-14 10:48:00,
2013-02-14 04:49:00,40.1,36.8,29.85,SE,127,0.0,0.0,88,-99.99,,,-99.99,WSDL version 423,2013-02-14 10:49:00,
2013-02-14 04:51:00,40.1,36.8,29.85,SE,130,0.0,0.0,88,-99.99,,,-99.99,WSDL version 423,2013-02-14 10:51:00,
2013-02-14 04:54:00,40.0,36.7,29.85,SSE,150,0.0,0.0,88,-99.99,,,-99.99,WSDL version 423,2013-02-14 10:54:00,
2013-02-14 04:58:00,39.9,36.6,29.85,SE,130,0.0,0.0,88,-99.99,,,-99.99,WSDL version 423,2013-02-14 10:58:00,
2013-02-14 04:59:00,39.9,36.6,29.85,SE,143,0.0,0.0,88,-99.99,,,-99.99,WSDL version 423,2013-02-14 10:59:00,
2013-02-14 05:03:00,39.9,36.6,29.85,ESE,113,0.0,0.0,88,-99.99,,,-99.99,WSDL version 423,2013-02-14 11:03:00,
2013-02-14 05:04:00,39.9,36.6,29.85,SE,145,0.0,0.0,88,-99.99,,,-99.99,WSDL version 423,2013-02-14 11:04:00,
2013-02-14 05:05:00,39.9,36.6,29.85,SE,145,0.0,0.0,88,-99.99,,,-99.99,WSDL version 423,2013-02-14 11:05:00,
2013-02-14 05:10:00,39.9,36.6,29.85,SSE,163,0.0,0.0,88,-99.99,,,-99.99,WSDL version 423,2013-02-14 11:10:00,
2013-02-14 05:12:00,39.9,36.6,29.85,SE,128,0.0,0.0,88,-99.99,,,-99.99,WSDL version 423,2013-02-14 11:12:00,
2013-02-14 05:15:00,39.9,36.6,29.85,SE,145,0.0,0.0,88,-99.99,,,-99.99,WSDL version 423,2013-02-14 11:15:00,
2013-02-14 05:17:00,39.9,36.6,29.85,SE,124,0.0,0.0,88,-99.99,,,-99.99,WSDL version 423,2013-02-14 11:17:00,
2013-02-14 05:21:00,39.8,36.4,29.85,SE,130,0.0,0.0,88,-99.99,,,-99.99,WSDL version 423,2013-02-14 11:21:00,
2013-02-14 05:22:00,39.8,36.5,29.85,SE,128,0.0,0.0,88,-99.99,,,-99.99,WSDL version 423,2013-02-14 11:22:00,
2013-02-14 05:23:00,39.8,36.5,29.85,SE,143,0.0,0.0,88,-99.99,,,-99.99,WSDL version 423,2013-02-14 11:23:00,
2013-02-14 05:28:00,39.7,36.4,29.85,SE,125,0.0,0.0,88,-99.99,,,-99.99,WSDL version 423,2013-02-14 11:28:00,
2013-02-14 05:29:00,39.7,36.4,29.85,ESE,123,0.0,0.0,88,-99.99,,,-99.99,WSDL version 423,2013-02-14 11:29:00,
2013-02-14 05:30:00,39.7,36.4,29.83,SE,127,0.0,0.0,88,-99.99,,,-99.99,WSDL version 423,2013-02-14 11:30:00,
2013-02-14 05:33:00,39.8,36.5,29.83,South,185,0.0,0.0,88,-99.99,,,-99.99,WSDL version 423,2013-02-14 11:33:00,
2013-02-14 05:35:00,39.8,36.5,29.83,ESE,110,0.0,0.0,88,-99.99,,,-99.99,WSDL version 423,2013-02-14 11:35:00,
2013-02-14 05:38:00,39.9,36.6,29.83,SE,146,0.0,0.0,88,-99.99,,,-99.99,WSDL version 423,2013-02-14 11:38:00,
2013-02-14 05:42:00,39.9,36.6,29.83,SSE,148,0.0,0.0,88,-99.99,,,-99.99,WSDL version 423,2013-02-14 11:42:00,
2013-02-14 05:43:00,39.9,36.6,29.83,South,170,0.0,0.0,88,-99.99,,,-99.99,WSDL version 423,2013-02-14 11:43:00,
2013-02-14 05:47:00,39.9,36.6,29.83,SSE,152,0.0,0.0,88,-99.99,,,-99.99,WSDL version 423,2013-02-14 11:47:00,
2013-02-14 05:48:00,39.9,36.6,29.83,SSE,163,0.0,0.0,88,-99.99,,,-99.99,WSDL version 423,2013-02-14 11:48:00,
2013-02-14 05:52:00,39.9,36.6,29.83,SSE,149,0.0,0.0,88,-99.99,,,-99.99,WSDL version 423,2013-02-14 11:52:00,
2013-02-14 05:54:00,39.9,36.6,29.83,SE,132,0.0,0.0,88,-99.99,,,-99.99,WSDL version 423,2013-02-14 11:54:00,
2013-02-14 05:55:00,39.9,36.6,29.83,East,90,0.0,0.0,88,-99.99,,,-99.99,WSDL version 423,2013-02-14 11:55:00,
2013-02-14 05:57:00,39.9,36.6,29.83,SE,133,0.0,0.0,88,-99.99,,,-99.99,WSDL version 423,2013-02-14 11:57:00,
2013-02-14 05:59:00,39.9,36.6,29.83,SE,138,0.0,0.0,88,-99.99,,,-99.99,WSDL version 423,2013-02-14 11:59:00,
2013-02-14 06:00:00,39.9,36.6,29.85,ESE,118,0.0,0.0,88,-99.99,,,-99.99,WSDL version 423,2013-02-14 12:00:00,
2013-02-14 06:01:00,39.9,36.6,29.85,ESE,123,0.0,0.0,88,-99.99,,,-99.99,WSDL version 423,2013-02-14 12:01:00,
2013-02-14 06:05:00,39.8,36.5,29.85,SSE,149,0.0,0.0,88,-99.99,,,-99.99,WSDL version 423,2013-02-14 12:05:00,
2013-02-14 06:07:00,39.7,36.4,29.85,SSE,155,0.0,0.0,88,-99.99,,,-99.99,WSDL version 423,2013-02-14 12:07:00,
2013-02-14 06:09:00,39.8,36.5,29.85,SE,143,0.0,0.0,88,-99.99,,,-99.99,WSDL version 423,2013-02-14 12:09:00,
2013-02-14 06:10:00,39.8,36.5,29.85,SSE,168,0.0,0.0,88,-99.99,,,-99.99,WSDL version 423,2013-02-14 12:10:00,
2013-02-14 06:11:00,39.8,36.5,29.85,SSE,168,0.0,0.0,88,-99.99,,,-99.99,WSDL version 423,2013-02-14 12:11:00,
2013-02-14 06:12:00,39.9,36.5,29.85,SSW,200,0.0,0.0,88,-99.99,,,-99.99,WSDL version 423,2013-02-14 12:12:00,
2013-02-14 06:16:00,39.9,36.6,29.85,SSE,160,0.0,0.0,88,-99.99,,,-99.99,WSDL version 423,2013-02-14 12:16:00,
2013-02-14 06:18:00,39.9,36.6,29.85,SE,145,0.0,0.0,89,-99.99,,,-99.99,WSDL version 423,2013-02-14 12:18:00,
2013-02-14 06:19:00,39.9,36.7,29.85,SE,141,0.0,0.0,89,-99.99,,,-99.99,WSDL version 423,2013-02-14 12:19:00,
2013-02-14 06:20:00,39.9,36.7,29.85,SE,132,0.0,0.0,89,-99.99,,,-99.99,WSDL version 423,2013-02-14 12:20:00,
2013-02-14 06:23:00,39.9,36.8,29.85,South,183,0.0,0.0,88,-99.99,,,-99.99,WSDL version 423,2013-02-14 12:23:00,
2013-02-14 06:25:00,39.9,36.6,29.85,SSE,153,0.0,0.0,88,-99.99,,,-99.99,WSDL version 423,2013-02-14 12:25:00,
2013-02-14 06:26:00,39.9,36.6,29.85,South,172,0.0,0.0,88,-99.99,,,-99.99,WSDL version 423,2013-02-14 12:26:00,
2013-02-14 06:28:00,39.9,36.6,29.85,SSE,163,0.0,0.0,88,-99.99,,,-99.99,WSDL version 423,2013-02-14 12:28:00,
2013-02-14 06:31:00,39.9,36.6,29.85,South,183,0.0,0.0,88,-99.99,,,-99.99,WSDL version 423,2013-02-14 12:31:00,
2013-02-14 06:34:00,39.9,36.6,29.85,ESE,118,0.0,0.0,88,-99.99,,,-99.99,WSDL version 423,2013-02-14 12:34:00,
2013-02-14 06:35:00,39.9,36.6,29.85,ESE,113,0.0,0.0,88,-99.99,,,-99.99,WSDL version 423,2013-02-14 12:35:00,
2013-02-14 06:37:00,39.9,36.6,29.85,South,177,0.0,0.0,88,-99.99,,,-99.99,WSDL version 423,2013-02-14 12:37:00,
2013-02-14 06:40:00,39.9,36.5,29.85,SSE,152,0.0,0.0,88,-99.99,,,-99.99,WSDL version 423,2013-02-14 12:40:00,
2013-02-14 06:42:00,39.8,36.5,29.85,SSE,148,0.0,0.0,88,-99.99,,,-99.99,WSDL version 423,2013-02-14 12:42:00,
2013-02-14 06:43:00,39.8,36.5,29.85,SE,138,0.0,0.0,88,-99.99,,,-99.99,WSDL version 423,2013-02-14 12:43:00,
2013-02-14 06:46:00,39.7,36.4,29.85,SE,130,0.0,0.0,88,-99.99,,,-99.99,WSDL version 423,2013-02-14 12:46:00,
2013-02-14 06:47:00,39.7,36.4,29.85,SE,143,0.0,0.0,88,-99.99,,,-99.99,WSDL version 423,2013-02-14 12:47:00,
2013-02-14 06:48:00,39.7,36.4,29.85,SE,129,0.0,0.0,88,-99.99,,,-99.99,WSDL version 423,2013-02-14 12:48:00,
2013-02-14 06:52:00,39.5,36.2,29.85,SSE,148,0.0,0.0,88,-99.99,,,-99.99,WSDL version 423,2013-02-14 12:52:00,
2013-02-14 06:53:00,39.5,36.2,29.85,SE,145,0.0,0.0,88,-99.99,,,-99.99,WSDL version 423,2013-02-14 12:53:00,
2013-02-14 06:58:00,39.6,36.3,29.85,SE,138,0.0,0.0,88,-99.99,,,-99.99,WSDL version 423,2013-02-14 12:58:00,
2013-02-14 07:01:00,39.7,36.4,29.85,SSE,155,0.0,0.0,88,-99.99,,,-99.99,WSDL version 423,2013-02-14 13:01:00,
2013-02-14 07:03:00,39.7,36.4,29.85,SE,143,0.0,0.0,88,-99.99,,,-99.99,WSDL version 423,2013-02-14 13:03:00,
2013-02-14 07:06:00,39.8,36.5,29.85,SSE,158,0.0,0.0,88,-99.99,,,-99.99,WSDL version 423,2013-02-14 13:06:00,
2013-02-14 07:09:00,39.9,36.6,29.85,SE,129,0.0,0.0,88,-99.99,,,-99.99,WSDL version 423,2013-02-14 13:09:00,
2013-02-14 07:11:00,40.0,36.7,29.85,SE,146,0.0,0.0,88,-99.99,,,-99.99,WSDL version 423,2013-02-14 13:11:00,
2013-02-14 07:12:00,40.0,36.7,29.85,SSE,155,0.0,0.0,88,-99.99,,,-99.99,WSDL version 423,2013-02-14 13:12:00,
2013-02-14 07:16:00,40.3,37.0,29.85,SE,127,0.0,0.0,88,-99.99,,,-99.99,WSDL version 423,2013-02-14 13:16:00,
2013-02-14 07:17:00,40.4,37.0,29.85,SE,140,0.0,0.0,88,-99.99,,,-99.99,WSDL version 423,2013-02-14 13:17:00,
2013-02-14 07:19:00,40.5,37.3,29.85,SSE,149,0.0,0.0,89,-99.99,,,-99.99,WSDL version 423,2013-02-14 13:19:00,
2013-02-14 07:21:00,40.7,37.6,29.85,SSE,150,0.0,0.0,89,-99.99,,,-99.99,WSDL version 423,2013-02-14 13:21:00,
2013-02-14 07:22:00,40.8,37.7,29.85,SE,143,0.0,0.0,89,-99.99,,,-99.99,WSDL version 423,2013-02-14 13:22:00,
2013-02-14 07:25:00,41.0,37.9,29.85,SE,133,0.0,0.0,89,-99.99,,,-99.99,WSDL version 423,2013-02-14 13:25:00,
2013-02-14 07:26:00,41.0,38.0,29.85,SE,124,0.0,0.0,89,-99.99,,,-99.99,WSDL version 423,2013-02-14 13:26:00,
2013-02-14 07:27:00,41.0,37.9,29.85,SE,140,0.0,0.0,88,-99.99,,,-99.99,WSDL version 423,2013-02-14 13:27:00,
2013-02-14 07:30:00,41.1,37.8,29.85,SE,129,0.0,0.0,88,-99.99,,,-99.99,WSDL version 423,2013-02-14 13:30:00,
2013-02-14 07:33:00,41.2,37.9,29.85,SSE,160,0.0,0.0,88,-99.99,,,-99.99,WSDL version 423,2013-02-14 13:33:00,
2013-02-14 07:34:00,41.3,37.9,29.85,SE,133,0.0,0.0,88,-99.99,,,-99.99,WSDL version 423,2013-02-14 13:34:00,
2013-02-14 07:35:00,41.3,38.0,29.85,SE,128,0.0,0.0,88,-99.99,,,-99.99,WSDL version 423,2013-02-14 13:35:00,
2013-02-14 07:38:00,41.7,38.1,29.85,SE,125,0.0,0.0,87,-99.99,,,-99.99,WSDL version 423,2013-02-14 13:38:00,
2013-02-14 07:39:00,41.9,38.3,29.85,SSE,148,0.0,0.0,87,-99.99,,,-99.99,WSDL version 423,2013-02-14 13:39:00,
2013-02-14 07:40:00,42.0,38.3,29.85,SE,132,0.0,0.0,87,-99.99,,,-99.99,WSDL version 423,2013-02-14 13:40:00,
2013-02-14 07:43:00,42.3,38.6,29.85,SE,138,0.0,0.0,87,-99.99,,,-99.99,WSDL version 423,2013-02-14 13:43:00,
2013-02-14 07:45:00,42.6,38.7,29.85,ESE,115,0.0,0.0,86,-99.99,,,-99.99,WSDL version 423,2013-02-14 13:45:00,
2013-02-14 07:46:00,42.6,38.7,29.85,SSE,148,0.0,0.0,86,-99.99,,,-99.99,WSDL version 423,2013-02-14 13:46:00,
2013-02-14 07:47:00,42.8,38.8,29.85,SSE,158,0.0,0.0,86,-99.99,,,-99.99,WSDL version 423,2013-02-14 13:47:00,
2013-02-14 07:52:00,43.2,38.9,29.85,SE,125,0.0,0.0,83,-99.99,,,-99.99,WSDL version 423,2013-02-14 13:52:00,
2013-02-14 07:53:00,43.3,38.9,29.85,SE,140,0.0,0.0,83,-99.99,,,-99.99,WSDL version 423,2013-02-14 13:53:00,
2013-02-14 07:54:00,43.4,38.9,29.85,SE,146,0.0,0.0,83,-99.99,,,-99.99,WSDL version 423,2013-02-14 13:54:00,
2013-02-14 07:55:00,43.6,38.9,29.85,SSE,155,0.0,0.0,83,-99.99,,,-99.99,WSDL version 423,2013-02-14 13:55:00,
2013-02-14 07:59:00,43.8,38.6,29.85,South,185,0.0,0.0,80,-99.99,,,-99.99,WSDL version 423,2013-02-14 13:59:00,
2013-02-14 08:02:00,44.2,38.5,29.85,ESE,121,0.0,0.0,80,-99.99,,,-99.99,WSDL version 423,2013-02-14 14:02:00,
2013-02-14 08:03:00,44.3,38.5,29.85,WSW,250,0.0,0.0,81,-99.99,,,-99.99,WSDL version 423,2013-02-14 14:03:00,
2013-02-14 08:05:00,44.4,38.7,29.85,SE,135,0.0,0.0,80,-99.99,,,-99.99,WSDL version 423,2013-02-14 14:05:00,
2013-02-14 08:07:00,44.7,38.9,29.85,South,170,0.0,0.0,79,-99.99,,,-99.99,WSDL version 423,2013-02-14 14:07:00,
2013-02-14 08:10:00,44.8,38.5,29.85,SSE,163,0.0,0.0,77,-99.99,,,-99.99,WSDL version 423,2013-02-14 14:10:00,
2013-02-14 08:11:00,44.9,38.4,29.85,SSE,163,0.0,0.0,77,-99.99,,,-99.99,WSDL version 423,2013-02-14 14:11:00,
2013-02-14 08:12:00,45.0,38.4,29.85,South,177,0.0,0.0,77,-99.99,,,-99.99,WSDL version 423,2013-02-14 14:12:00,
2013-02-14 08:15:00,45.3,38.5,29.85,SSE,152,0.0,0.0,76,-99.99,,,-99.99,WSDL version 423,2013-02-14 14:15:00,
2013-02-14 08:17:00,45.7,38.5,29.88,SSE,158,0.0,0.0,75,-99.99,,,-99.99,WSDL version 423,2013-02-14 14:17:00,
2013-02-14 08:20:00,46.1,38.4,29.88,SE,146,0.0,0.0,73,-99.99,,,-99.99,WSDL version 423,2013-02-14 14:20:00,
2013-02-14 08:21:00,46.3,38.4,29.88,SSE,158,0.0,0.0,73,-99.99,,,-99.99,WSDL version 423,2013-02-14 14:21:00,
2013-02-14 08:22:00,46.5,38.5,29.88,SSE,163,0.0,0.0,73,-99.99,,,-99.99,WSDL version 423,2013-02-14 14:22:00,
2013-02-14 08:25:00,47.1,38.6,29.88,South,175,0.0,0.0,71,-99.99,,,-99.99,WSDL version 423,2013-02-14 14:25:00,
2013-02-14 08:27:00,47.3,38.3,29.88,SE,135,0.0,0.0,69,-99.99,,,-99.99,WSDL version 423,2013-02-14 14:27:00,
2013-02-14 08:28:00,47.5,38.2,29.88,SE,135,0.0,0.0,68,-99.99,,,-99.99,WSDL version 423,2013-02-14 14:28:00,
2013-02-14 08:31:00,47.9,38.0,29.88,South,170,0.0,0.0,68,-99.99,,,-99.99,WSDL version 423,2013-02-14 14:31:00,
2013-02-14 08:34:00,48.5,38.3,29.88,WSW,240,0.0,0.0,67,-99.99,,,-99.99,WSDL version 423,2013-02-14 14:34:00,
2013-02-14 08:35:00,48.6,38.3,29.88,SE,146,0.0,0.0,66,-99.99,,,-99.99,WSDL version 423,2013-02-14 14:35:00,
2013-02-14 08:36:00,48.8,38.2,29.88,SSE,161,0.0,0.0,65,-99.99,,,-99.99,WSDL version 423,2013-02-14 14:36:00,
2013-02-14 08:39:00,49.2,37.9,29.88,SSE,168,0.0,0.0,63,-99.99,,,-99.99,WSDL version 423,2013-02-14 14:39:00,
2013-02-14 08:41:00,49.5,37.7,29.88,SSE,160,0.0,0.0,63,-99.99,,,-99.99,WSDL version 423,2013-02-14 14:41:00,
2013-02-14 08:43:00,49.8,37.8,29.88,South,186,0.0,0.0,64,-99.99,,,-99.99,WSDL version 423,2013-02-14 14:43:00,
2013-02-14 08:46:00,50.3,38.2,29.88,SSW,200,0.0,0.0,62,-99.99,,,-99.99,WSDL version 423,2013-02-14 14:46:00,
2013-02-14 08:53:00,51.2,36.9,29.88,SSE,168,0.0,0.0,57,-99.99,,,-99.99,WSDL version 423,2013-02-14 14:53:00,
2013-02-14 08:54:00,51.3,36.8,29.88,South,177,0.0,0.0,56,-99.99,,,-99.99,WSDL version 423,2013-02-14 14:54:00,
2013-02-14 08:55:00,51.4,36.5,29.88,SSE,168,0.0,0.0,56,-99.99,,,-99.99,WSDL version 423,2013-02-14 14:55:00,
2013-02-14 08:59:00,51.9,36.7,29.88,South,169,0.0,0.0,56,-99.99,,,-99.99,WSDL version 423,2013-02-14 14:59:00,
2013-02-14 09:01:00,52.3,36.8,29.88,South,188,0.0,0.0,54,-99.99,,,-99.99,WSDL version 423,2013-02-14 15:01:00,
2013-02-14 09:03:00,52.4,36.3,29.88,South,188,0.0,0.0,52,-99.99,,,-99.99,WSDL version 423,2013-02-14 15:03:00,
2013-02-14 09:06:00,52.7,36.0,29.88,South,188,0.0,0.0,52,-99.99,,,-99.99,WSDL version 423,2013-02-14 15:06:00,
2013-02-14 09:09:00,53.1,36.1,29.88,SE,140,0.0,0.0,52,-99.99,,,-99.99,WSDL version 423,2013-02-14 15:09:00,
2013-02-14 09:10:00,53.2,36.0,29.88,SE,143,0.0,0.0,52,-99.99,,,-99.99,WSDL version 423,2013-02-14 15:10:00,
2013-02-14 09:11:00,53.3,36.1,29.88,SSE,160,0.0,0.0,52,-99.99,,,-99.99,WSDL version 423,2013-02-14 15:11:00,
2013-02-14 09:16:00,53.5,35.2,29.88,SSW,193,0.0,0.0,50,-99.99,,,-99.99,WSDL version 423,2013-02-14 15:16:00,
2013-02-14 09:18:00,53.7,35.5,29.88,South,177,0.0,0.0,50,-99.99,,,-99.99,WSDL version 423,2013-02-14 15:18:00,
2013-02-14 09:19:00,53.8,35.4,29.88,SSE,158,0.0,0.0,48,-99.99,,,-99.99,WSDL version 423,2013-02-14 15:19:00,
2013-02-14 09:23:00,54.0,34.5,29.88,SSE,148,0.0,0.0,49,-99.99,,,-99.99,WSDL version 423,2013-02-14 15:23:00,
2013-02-14 09:24:00,54.1,34.7,29.88,SSE,163,0.0,0.0,49,-99.99,,,-99.99,WSDL version 423,2013-02-14 15:24:00,
2013-02-14 09:25:00,54.5,35.5,29.88,South,186,0.0,0.0,50,-99.99,,,-99.99,WSDL version 423,2013-02-14 15:25:00,
2013-02-14 09:27:00,54.8,35.7,29.88,South,183,0.0,0.0,46,-99.99,,,-99.99,WSDL version 423,2013-02-14 15:27:00,
2013-02-14 09:29:00,55.1,35.3,29.88,South,172,0.0,0.0,45,-99.99,,,-99.99,WSDL version 423,2013-02-14 15:29:00,
2013-02-14 09:32:00,55.1,33.8,29.88,South,186,0.0,0.0,43,-99.99,,,-99.99,WSDL version 423,2013-02-14 15:32:00,
2013-02-14 09:34:00,55.2,33.8,29.88,SSW,197,0.0,0.0,45,-99.99,,,-99.99,WSDL version 423,2013-02-14 15:34:00,
2013-02-14 09:37:00,55.5,34.2,29.88,SSW,193,0.0,0.0,44,-99.99,,,-99.99,WSDL version 423,2013-02-14 15:37:00,
2013-02-14 09:39:00,55.8,34.4,29.88,SSW,205,0.0,0.0,44,-99.99,,,-99.99,WSDL version 423,2013-02-14 15:39:00,
2013-02-14 09:41:00,56.2,34.6,29.88,South,174,0.0,0.0,44,-99.99,,,-99.99,WSDL version 423,2013-02-14 15:41:00,
2013-02-14 09:46:00,57.1,35.1,29.88,SSW,203,0.0,0.0,43,-99.99,,,-99.99,WSDL version 423,2013-02-14 15:46:00,
2013-02-14 09:48:00,57.5,35.4,29.88,SW,215,0.0,0.0,43,-99.99,,,-99.99,WSDL version 423,2013-02-14 15:48:00,
2013-02-14 10:06:00,58.9,35.0,29.88,South,170,0.0,0.0,41,-99.99,,,-99.99,WSDL version 423,2013-02-14 16:06:00,
2013-02-14 10:07:00,58.8,34.9,29.88,SSW,193,0.0,0.0,41,-99.99,,,-99.99,WSDL version 423,2013-02-14 16:07:00,
2013-02-14 10:10:00,58.8,34.9,29.88,South,175,0.0,0.0,41,-99.99,,,-99.99,WSDL version 423,2013-02-14 16:10:00,
2013-02-14 10:14:00,59.2,35.2,29.88,South,180,0.0,0.0,41,-99.99,,,-99.99,WSDL version 423,2013-02-14 16:14:00,
2013-02-14 10:16:00,59.4,35.5,29.88,SSE,152,0.0,0.0,41,-99.99,,,-99.99,WSDL version 423,2013-02-14 16:16:00,
2013-02-14 10:18:00,59.7,35.7,29.88,South,183,0.0,0.0,41,-99.99,,,-99.99,WSDL version 423,2013-02-14 16:18:00,
2013-02-14 10:19:00,59.7,35.6,29.88,SE,140,0.0,0.0,40,-99.99,,,-99.99,WSDL version 423,2013-02-14 16:19:00,
2013-02-14 10:24:00,60.0,35.6,29.88,South,178,0.0,0.0,39,-99.99,,,-99.99,WSDL version 423,2013-02-14 16:24:00,
2013-02-14 10:25:00,60.0,35.5,29.88,SSW,193,0.0,0.0,40,-99.99,,,-99.99,WSDL version 423,2013-02-14 16:25:00,
2013-02-14 10:30:00,60.1,35.0,29.88,WSW,238,0.0,0.0,39,-99.99,,,-99.99,WSDL version 423,2013-02-14 16:30:00,
2013-02-14 10:32:00,60.0,34.6,29.88,South,172,0.0,0.0,39,-99.99,,,-99.99,WSDL version 423,2013-02-14 16:32:00,
2013-02-14 10:37:00,60.4,35.5,29.88,SSW,205,0.0,0.0,40,-99.99,,,-99.99,WSDL version 423,2013-02-14 16:37:00,
2013-02-14 10:39:00,60.9,35.9,29.88,South,180,0.0,0.0,39,-99.99,,,-99.99,WSDL version 423,2013-02-14 16:39:00,
2013-02-14 10:43:00,61.6,36.1,29.88,South,169,0.0,0.0,39,-99.99,,,-99.99,WSDL version 423,2013-02-14 16:43:00,
2013-02-14 10:44:00,61.7,36.3,29.88,South,188,0.0,0.0,39,-99.99,,,-99.99,WSDL version 423,2013-02-14 16:44:00,
2013-02-14 10:46:00,62.2,36.7,29.88,SSE,158,0.0,0.0,38,-99.99,,,-99.99,WSDL version 423,2013-02-14 16:46:00,
2013-02-14 10:49:00,62.8,37.1,29.88,South,174,0.0,0.0,38,-99.99,,,-99.99,WSDL version 423,2013-02-14 16:49:00,
2013-02-14 10:50:00,62.9,37.0,29.88,SSW,203,0.0,0.0,38,-99.99,,,-99.99,WSDL version 423,2013-02-14 16:50:00,
2013-02-14 10:51:00,63.1,37.1,29.88,WSW,248,0.0,0.0,37,-99.99,,,-99.99,WSDL version 423,2013-02-14 16:51:00,
2013-02-14 10:55:00,63.2,36.0,29.88,SSE,165,0.0,0.0,35,-99.99,,,-99.99,WSDL version 423,2013-02-14 16:55:00,
2013-02-14 10:56:00,63.1,35.7,29.88,South,169,0.0,0.0,36,-99.99,,,-99.99,WSDL version 423,2013-02-14 16:56:00,
2013-02-14 10:57:00,63.0,35.4,29.88,South,188,0.0,0.0,36,-99.99,,,-99.99,WSDL version 423,2013-02-14 16:57:00,
2013-02-14 11:00:00,63.1,35.4,29.88,SW,222,0.0,0.0,35,-99.99,,,-99.99,WSDL version 423,2013-02-14 17:00:00,
2013-02-14 11:03:00,63.3,34.8,29.88,SSW,209,0.0,0.0,34,-99.99,,,-99.99,WSDL version 423,2013-02-14 17:03:00,
2013-02-14 11:05:00,63.3,34.5,29.88,South,180,0.0,0.0,34,-99.99,,,-99.99,WSDL version 423,2013-02-14 17:05:00,
2013-02-14 11:07:00,63.4,34.6,29.88,South,183,0.0,0.0,34,-99.99,,,-99.99,WSDL version 423,2013-02-14 17:07:00,
2013-02-14 11:09:00,63.7,34.8,29.88,SE,143,0.0,0.0,34,-99.99,,,-99.99,WSDL version 423,2013-02-14 17:09:00,
2013-02-14 11:12:00,63.4,34.0,29.88,SSW,198,0.0,0.0,33,-99.99,,,-99.99,WSDL version 423,2013-02-14 17:12:00,
2013-02-14 11:13:00,63.2,33.8,29.88,South,188,0.0,0.0,33,-99.99,,,-99.99,WSDL version 423,2013-02-14 17:13:00,
2013-02-14 11:15:00,62.9,33.3,29.88,South,183,0.0,0.0,33,-99.99,,,-99.99,WSDL version 423,2013-02-14 17:15:00,
2013-02-14 11:18:00,62.8,33.4,29.88,SSW,200,0.0,0.0,33,-99.99,,,-99.99,WSDL version 423,2013-02-14 17:18:00,
2013-02-14 11:19:00,62.7,33.3,29.88,SSW,203,0.0,0.0,33,-99.99,,,-99.99,WSDL version 423,2013-02-14 17:19:00,
2013-02-14 11:20:00,62.6,33.3,29.88,SW,219,0.0,0.0,33,-99.99,,,-99.99,WSDL version 423,2013-02-14 17:20:00,
2013-02-14 11:21:00,62.6,33.1,29.88,SSW,209,0.0,0.0,33,-99.99,,,-99.99,WSDL version 423,2013-02-14 17:21:00,
2013-02-14 11:25:00,62.9,33.5,29.88,South,186,0.0,0.0,33,-99.99,,,-99.99,WSDL version 423,2013-02-14 17:25:00,
2013-02-14 11:26:00,63.0,33.7,29.88,SSW,205,0.0,0.0,33,-99.99,,,-99.99,WSDL version 423,2013-02-14 17:26:00,
2013-02-14 11:29:00,63.6,34.0,29.88,SW,223,0.0,0.0,33,-99.99,,,-99.99,WSDL version 423,2013-02-14 17:29:00,
2013-02-14 11:30:00,63.7,34.1,29.88,SW,235,0.0,0.0,33,-99.99,,,-99.99,WSDL version 423,2013-02-14 17:30:00,
2013-02-14 11:31:00,63.8,34.2,29.88,SW,236,0.0,0.0,33,-99.99,,,-99.99,WSDL version 423,2013-02-14 17:31:00,
2013-02-14 11:36:00,64.1,34.4,29.88,South,175,0.0,0.0,33,-99.99,,,-99.99,WSDL version 423,2013-02-14 17:36:00,
2013-02-14 11:41:00,64.6,34.9,29.88,SE,145,0.0,0.0,33,-99.99,,,-99.99,WSDL version 423,2013-02-14 17:41:00,
2013-02-14 11:43:00,64.5,34.5,29.88,SW,215,0.0,0.0,33,-99.99,,,-99.99,WSDL version 423,2013-02-14 17:43:00,
2013-02-14 11:45:00,64.4,34.3,29.88,SSW,203,0.0,0.0,33,-99.99,,,-99.99,WSDL version 423,2013-02-14 17:45:00,
2013-02-14 11:47:00,64.5,34.5,29.88,South,185,0.0,0.0,33,-99.99,,,-99.99,WSDL version 423,2013-02-14 17:47:00,
2013-02-14 11:51:00,64.7,34.5,29.88,SSW,210,0.0,0.0,32,-99.99,,,-99.99,WSDL version 423,2013-02-14 17:51:00,
2013-02-14 11:56:00,64.8,34.4,29.88,SW,214,0.0,0.0,32,-99.99,,,-99.99,WSDL version 423,2013-02-14 17:56:00,
2013-02-14 11:57:00,64.9,34.5,29.88,South,190,0.0,0.0,32,-99.99,,,-99.99,WSDL version 423,2013-02-14 17:57:00,
2013-02-14 11:58:00,65.0,34.5,29.88,South,188,0.0,0.0,32,-99.99,,,-99.99,WSDL version 423,2013-02-14 17:58:00,
2013-02-14 11:59:00,65.1,34.6,29.88,WSW,244,0.0,0.0,32,-99.99,,,-99.99,WSDL version 423,2013-02-14 17:59:00,
2013-02-14 12:03:00,65.6,35.0,29.88,South,177,0.0,0.0,32,-99.99,,,-99.99,WSDL version 423,2013-02-14 18:03:00,
2013-02-14 12:06:00,66.1,35.4,29.88,SSW,211,0.0,0.0,32,-99.99,,,-99.99,WSDL version 423,2013-02-14 18:06:00,
2013-02-14 12:08:00,66.2,35.3,29.88,SSE,150,0.0,0.0,31,-99.99,,,-99.99,WSDL version 423,2013-02-14 18:08:00,
2013-02-14 12:11:00,65.7,34.4,29.88,SSE,165,0.0,0.0,31,-99.99,,,-99.99,WSDL version 423,2013-02-14 18:11:00,
2013-02-14 12:14:00,65.8,34.6,29.88,South,188,0.0,0.0,32,-99.99,,,-99.99,WSDL version 423,2013-02-14 18:14:00,
2013-02-14 12:16:00,66.1,34.9,29.88,South,178,0.0,0.0,31,-99.99,,,-99.99,WSDL version 423,2013-02-14 18:16:00,
2013-02-14 12:19:00,66.2,34.7,29.88,SSW,205,0.0,0.0,31,-99.99,,,-99.99,WSDL version 423,2013-02-14 18:19:00,
2013-02-14 12:21:00,66.3,34.8,29.88,SSW,203,0.0,0.0,31,-99.99,,,-99.99,WSDL version 423,2013-02-14 18:21:00,
2013-02-14 12:24:00,66.3,34.8,29.88,SSW,211,0.0,0.0,31,-99.99,,,-99.99,WSDL version 423,2013-02-14 18:24:00,
2013-02-14 12:26:00,66.1,34.6,29.88,West,260,0.0,0.0,31,-99.99,,,-99.99,WSDL version 423,2013-02-14 18:26:00,
2013-02-14 12:27:00,66.1,34.6,29.88,SSW,200,0.0,0.0,31,-99.99,,,-99.99,WSDL version 423,2013-02-14 18:27:00,
2013-02-14 12:48:00,66.2,34.7,29.85,SSW,205,0.0,0.0,31,-99.99,,,-99.99,WSDL version 423,2013-02-14 18:48:00,
2013-02-14 12:49:00,66.1,34.7,29.85,SSE,163,0.0,0.0,31,-99.99,,,-99.99,WSDL version 423,2013-02-14 18:49:00,
2013-02-14 12:52:00,65.9,34.5,29.85,SE,141,0.0,0.0,31,-99.99,,,-99.99,WSDL version 423,2013-02-14 18:52:00,
2013-02-14 12:56:00,65.7,34.3,29.85,SSW,200,0.0,0.0,31,-99.99,,,-99.99,WSDL version 423,2013-02-14 18:56:00,
2013-02-14 12:57:00,65.9,34.4,29.85,SSW,195,0.0,0.0,31,-99.99,,,-99.99,WSDL version 423,2013-02-14 18:57:00,
2013-02-14 12:58:00,65.9,34.5,29.85,SSW,205,0.0,0.0,31,-99.99,,,-99.99,WSDL version 423,2013-02-14 18:58:00,
2013-02-14 13:01:00,66.1,34.6,29.85,SSE,155,0.0,0.0,31,-99.99,,,-99.99,WSDL version 423,2013-02-14 19:01:00,
2013-02-14 13:02:00,66.3,34.7,29.85,South,183,0.0,0.0,31,-99.99,,,-99.99,WSDL version 423,2013-02-14 19:02:00,
2013-02-14 13:06:00,66.8,35.2,29.85,SSE,161,0.0,0.0,31,-99.99,,,-99.99,WSDL version 423,2013-02-14 19:06:00,
2013-02-14 13:07:00,66.8,35.3,29.85,South,190,0.0,0.0,31,-99.99,,,-99.99,WSDL version 423,2013-02-14 19:07:00,
2013-02-14 13:12:00,67.1,35.3,29.85,SSE,155,0.0,0.0,31,-99.99,,,-99.99,WSDL version 423,2013-02-14 19:12:00,
2013-02-14 13:13:00,67.1,35.4,29.85,SE,143,0.0,0.0,31,-99.99,,,-99.99,WSDL version 423,2013-02-14 19:13:00,
2013-02-14 13:17:00,67.0,35.4,29.85,South,183,0.0,0.0,31,-99.99,,,-99.99,WSDL version 423,2013-02-14 19:17:00,
2013-02-14 13:19:00,66.8,35.3,29.85,SSW,200,0.0,0.0,31,-99.99,,,-99.99,WSDL version 423,2013-02-14 19:19:00,
2013-02-14 13:23:00,67.1,34.8,29.85,South,170,0.0,0.0,30,-99.99,,,-99.99,WSDL version 423,2013-02-14 19:23:00,
2013-02-14 13:26:00,66.9,34.8,29.85,SSE,158,0.0,0.0,31,-99.99,,,-99.99,WSDL version 423,2013-02-14 19:26:00,
2013-02-14 13:28:00,66.7,35.0,29.85,South,180,0.0,0.0,31,-99.99,,,-99.99,WSDL version 423,2013-02-14 19:28:00,
2013-02-14 13:31:00,66.7,35.0,29.85,SSW,205,0.0,0.0,30,-99.99,,,-99.99,WSDL version 423,2013-02-14 19:31:00,
2013-02-14 13:33:00,66.8,34.8,29.85,SW,235,0.0,0.0,30,-99.99,,,-99.99,WSDL version 423,2013-02-14 19:33:00,
2013-02-14 13:38:00,67.3,34.9,29.85,SSW,194,0.0,0.0,30,-99.99,,,-99.99,WSDL version 423,2013-02-14 19:38:00,
2013-02-14 13:41:00,67.1,34.6,29.85,South,191,0.0,0.0,30,-99.99,,,-99.99,WSDL version 423,2013-02-14 19:41:00,
2013-02-14 13:43:00,67.1,34.6,29.85,SSW,194,0.0,0.0,30,-99.99,,,-99.99,WSDL version 423,2013-02-14 19:43:00,
2013-02-14 13:46:00,67.1,34.7,29.85,SSW,205,0.0,0.0,30,-99.99,,,-99.99,WSDL version 423,2013-02-14 19:46:00,
2013-02-14 13:50:00,67.4,34.9,29.85,WSW,239,0.0,0.0,30,-99.99,,,-99.99,WSDL version 423,2013-02-14 19:50:00,
2013-02-14 13:51:00,67.4,35.0,29.85,WSW,253,0.0,0.0,30,-99.99,,,-99.99,WSDL version 423,2013-02-14 19:51:00,
2013-02-14 13:56:00,67.3,34.9,29.85,SSW,205,0.0,0.0,30,-99.99,,,-99.99,WSDL version 423,2013-02-14 19:56:00,
2013-02-14 13:57:00,67.3,34.8,29.85,South,185,0.0,0.0,30,-99.99,,,-99.99,WSDL version 423,2013-02-14 19:57:00,
2013-02-14 13:58:00,67.2,34.8,29.85,SW,219,0.0,0.0,30,-99.99,,,-99.99,WSDL version 423,2013-02-14 19:58:00,
2013-02-14 14:02:00,67.6,35.1,29.85,South,186,0.0,0.0,30,-99.99,,,-99.99,WSDL version 423,2013-02-14 20:02:00,
2013-02-14 14:06:00,67.2,34.7,29.85,SE,124,0.0,0.0,30,-99.99,,,-99.99,WSDL version 423,2013-02-14 20:06:00,
2013-02-14 14:07:00,67.1,34.6,29.85,SSW,208,0.0,0.0,30,-99.99,,,-99.99,WSDL version 423,2013-02-14 20:07:00,
2013-02-14 14:11:00,66.8,34.4,29.85,South,180,0.0,0.0,30,-99.99,,,-99.99,WSDL version 423,2013-02-14 20:11:00,
2013-02-14 14:12:00,66.7,34.3,29.85,SSE,155,0.0,0.0,30,-99.99,,,-99.99,WSDL version 423,2013-02-14 20:12:00,
2013-02-14 14:17:00,66.5,34.2,29.85,SSW,210,0.0,0.0,30,-99.99,,,-99.99,WSDL version 423,2013-02-14 20:17:00,
2013-02-14 14:19:00,66.4,34.1,29.85,SSW,211,0.0,0.0,30,-99.99,,,-99.99,WSDL version 423,2013-02-14 20:19:00,
2013-02-14 14:20:00,66.4,34.1,29.85,SSE,155,0.0,0.0,30,-99.99,,,-99.99,WSDL version 423,2013-02-14 20:20:00,
2013-02-14 14:22:00,66.2,33.9,29.85,SSE,158,0.0,0.0,30,-99.99,,,-99.99,WSDL version 423,2013-02-14 20:22:00,
2013-02-14 14:24:00,66.1,33.8,29.85,SSE,168,0.0,0.0,30,-99.99,,,-99.99,WSDL version 423,2013-02-14 20:24:00,
2013-02-14 14:28:00,66.1,33.8,29.85,South,177,0.0,0.0,30,-99.99,,,-99.99,WSDL version 423,2013-02-14 20:28:00,
2013-02-14 14:31:00,66.4,34.3,29.85,SSE,163,0.0,0.0,31,-99.99,,,-99.99,WSDL version 423,2013-02-14 20:31:00,
2013-02-14 14:33:00,66.6,34.7,29.85,West,276,0.0,0.0,31,-99.99,,,-99.99,WSDL version 423,2013-02-14 20:33:00,
2013-02-14 14:38:00,66.4,34.9,29.85,SE,125,0.0,0.0,31,-99.99,,,-99.99,WSDL version 423,2013-02-14 20:38:00,
2013-02-14 14:39:00,66.4,34.8,29.85,SE,140,0.0,0.0,31,-99.99,,,-99.99,WSDL version 423,2013-02-14 20:39:00,
2013-02-14 14:43:00,66.1,34.6,29.85,SSW,193,0.0,0.0,31,-99.99,,,-99.99,WSDL version 423,2013-02-14 20:43:00,
2013-02-14 14:45:00,66.0,34.4,29.85,South,190,0.0,0.0,31,-99.99,,,-99.99,WSDL version 423,2013-02-14 20:45:00,
2013-02-14 14:48:00,65.9,34.2,29.85,WNW,290,0.0,0.0,31,-99.99,,,-99.99,WSDL version 423,2013-02-14 20:48:00,
2013-02-14 14:53:00,66.1,34.6,29.85,SSW,203,0.0,0.0,31,-99.99,,,-99.99,WSDL version 423,2013-02-14 20:53:00,
2013-02-14 14:56:00,66.1,34.6,29.85,South,183,0.0,0.0,31,-99.99,,,-99.99,WSDL version 423,2013-02-14 20:56:00,
2013-02-14 14:57:00,66.0,34.6,29.85,South,170,0.0,0.0,31,-99.99,,,-99.99,WSDL version 423,2013-02-14 20:57:00,
2013-02-14 14:58:00,65.9,34.3,29.85,SSW,203,0.0,0.0,31,-99.99,,,-99.99,WSDL version 423,2013-02-14 20:58:00,
2013-02-14 15:03:00,65.3,33.9,29.85,SSE,158,0.0,0.0,31,-99.99,,,-99.99,WSDL version 423,2013-02-14 21:03:00,
2013-02-14 15:04:00,65.2,33.8,29.85,South,180,0.0,0.0,31,-99.99,,,-99.99,WSDL version 423,2013-02-14 21:04:00,
2013-02-14 15:08:00,65.2,33.9,29.85,SW,231,0.0,0.0,31,-99.99,,,-99.99,WSDL version 423,2013-02-14 21:08:00,
2013-02-14 15:09:00,65.3,33.9,29.85,SSW,206,0.0,0.0,31,-99.99,,,-99.99,WSDL version 423,2013-02-14 21:09:00,
2013-02-14 15:14:00,65.5,34.1,29.85,SSW,206,0.0,0.0,31,-99.99,,,-99.99,WSDL version 423,2013-02-14 21:14:00,
2013-02-14 15:18:00,65.1,33.7,29.85,SW,218,0.0,0.0,31,-99.99,,,-99.99,WSDL version 423,2013-02-14 21:18:00,
2013-02-14 15:19:00,64.9,33.6,29.85,SW,233,0.0,0.0,31,-99.99,,,-99.99,WSDL version 423,2013-02-14 21:19:00,
2013-02-14 15:20:00,64.7,33.4,29.85,SW,223,0.0,0.0,31,-99.99,,,-99.99,WSDL version 423,2013-02-14 21:20:00,
2013-02-14 15:23:00,64.3,33.0,29.85,SSW,200,0.0,0.0,31,-99.99,,,-99.99,WSDL version 423,2013-02-14 21:23:00,
2013-02-14 15:25:00,64.2,33.0,29.85,South,178,0.0,0.0,31,-99.99,,,-99.99,WSDL version 423,2013-02-14 21:25:00,
2013-02-14 15:30:00,64.7,33.4,29.85,SSW,205,0.0,0.0,31,-99.99,,,-99.99,WSDL version 423,2013-02-14 21:30:00,
2013-02-14 15:32:00,64.9,33.5,29.85,SW,220,0.0,0.0,31,-99.99,,,-99.99,WSDL version 423,2013-02-14 21:32:00,
2013-02-14 15:35:00,64.9,33.6,29.85,SSW,209,0.0,0.0,31,-99.99,,,-99.99,WSDL version 423,2013-02-14 21:35:00,
2013-02-14 15:39:00,64.7,33.4,29.85,SSW,200,0.0,0.0,31,-99.99,,,-99.99,WSDL version 423,2013-02-14 21:39:00,
2013-02-14 15:42:00,64.6,33.3,29.85,SW,219,0.0,0.0,31,-99.99,,,-99.99,WSDL version 423,2013-02-14 21:42:00,
2013-02-14 15:46:00,64.4,33.2,29.85,South,174,0.0,0.0,31,-99.99,,,-99.99,WSDL version 423,2013-02-14 21:46:00,
2013-02-14 15:48:00,64.4,33.1,29.85,South,178,0.0,0.0,31,-99.99,,,-99.99,WSDL version 423,2013-02-14 21:48:00,
2013-02-14 15:51:00,64.3,33.0,29.85,SSE,150,0.0,0.0,31,-99.99,,,-99.99,WSDL version 423,2013-02-14 21:51:00,
2013-02-14 15:53:00,64.2,33.0,29.85,South,191,0.0,0.0,31,-99.99,,,-99.99,WSDL version 423,2013-02-14 21:53:00,
2013-02-14 15:56:00,64.1,32.9,29.85,SE,128,0.0,0.0,31,-99.99,,,-99.99,WSDL version 423,2013-02-14 21:56:00,
2013-02-14 15:57:00,63.9,32.7,29.85,SSW,197,0.0,0.0,31,-99.99,,,-99.99,WSDL version 423,2013-02-14 21:57:00,
2013-02-14 15:58:00,63.8,32.6,29.85,SSW,205,0.0,0.0,31,-99.99,,,-99.99,WSDL version 423,2013-02-14 21:58:00,
2013-02-14 16:02:00,63.7,32.5,29.88,South,183,0.0,0.0,31,-99.99,,,-99.99,WSDL version 423,2013-02-14 22:02:00,
2013-02-14 16:03:00,63.7,32.5,29.88,SSE,163,0.0,0.0,31,-99.99,,,-99.99,WSDL version 423,2013-02-14 22:03:00,
2013-02-14 16:08:00,63.7,32.5,29.88,South,186,0.0,0.0,31,-99.99,,,-99.99,WSDL version 423,2013-02-14 22:08:00,
2013-02-14 16:09:00,63.6,32.4,29.88,SSW,208,0.0,0.0,31,-99.99,,,-99.99,WSDL version 423,2013-02-14 22:09:00,
2013-02-14 16:14:00,63.5,33.1,29.88,South,172,0.0,0.0,32,-99.99,,,-99.99,WSDL version 423,2013-02-14 22:14:00,
2013-02-14 16:15:00,63.5,33.1,29.85,South,183,0.0,0.0,32,-99.99,,,-99.99,WSDL version 423,2013-02-14 22:15:00,
2013-02-14 16:19:00,63.5,33.1,29.85,SSE,155,0.0,0.0,32,-99.99,,,-99.99,WSDL version 423,2013-02-14 22:19:00,
2013-02-14 16:21:00,63.4,33.1,29.85,SE,138,0.0,0.0,32,-99.99,,,-99.99,WSDL version 423,2013-02-14 22:21:00,
2013-02-14 16:25:00,63.3,33.0,29.85,SSE,160,0.0,0.0,32,-99.99,,,-99.99,WSDL version 423,2013-02-14 22:25:00,
2013-02-14 16:26:00,63.3,33.0,29.85,SSE,164,0.0,0.0,32,-99.99,,,-99.99,WSDL version 423,2013-02-14 22:26:00,
2013-02-14 16:30:00,63.1,32.8,29.85,SSW,200,0.0,0.0,32,-99.99,,,-99.99,WSDL version 423,2013-02-14 22:30:00,
2013-02-14 16:33:00,62.9,32.6,29.85,South,180,0.0,0.0,32,-99.99,,,-99.99,WSDL version 423,2013-02-14 22:33:00,
2013-02-14 16:36:00,62.7,32.4,29.85,South,175,0.0,0.0,32,-99.99,,,-99.99,WSDL version 423,2013-02-14 22:36:00,
2013-02-14 16:41:00,62.3,32.1,29.85,SSE,163,0.0,0.0,32,-99.99,,,-99.99,WSDL version 423,2013-02-14 22:41:00,
2013-02-14 16:42:00,62.3,32.1,29.85,SSE,153,0.0,0.0,32,-99.99,,,-99.99,WSDL version 423,2013-02-14 22:42:00,
2013-02-14 16:43:00,62.2,32.1,29.85,South,183,0.0,0.0,33,-99.99,,,-99.99,WSDL version 423,2013-02-14 22:43:00,
2013-02-14 16:46:00,62.0,32.5,29.88,SE,146,0.0,0.0,33,-99.99,,,-99.99,WSDL version 423,2013-02-14 22:46:00,
2013-02-14 16:47:00,61.9,32.5,29.88,SSE,158,0.0,0.0,33,-99.99,,,-99.99,WSDL version 423,2013-02-14 22:47:00,
2013-02-14 16:52:00,61.6,32.2,29.88,ESE,110,0.0,0.0,33,-99.99,,,-99.99,WSDL version 423,2013-02-14 22:52:00,
2013-02-14 16:54:00,61.5,32.4,29.88,South,169,0.0,0.0,34,-99.99,,,-99.99,WSDL version 423,2013-02-14 22:54:00,
2013-02-14 16:55:00,61.4,32.4,29.88,South,190,0.0,0.0,34,-99.99,,,-99.99,WSDL version 423,2013-02-14 22:55:00,
2013-02-14 16:56:00,61.4,32.5,29.88,South,175,0.0,0.0,34,-99.99,,,-99.99,WSDL version 423,2013-02-14 22:56:00,
2013-02-14 16:57:00,61.2,32.7,29.88,SSE,160,0.0,0.0,34,-99.99,,,-99.99,WSDL version 423,2013-02-14 22:57:00,
2013-02-14 16:59:00,61.1,32.6,29.88,South,173,0.0,0.0,34,-99.99,,,-99.99,WSDL version 423,2013-02-14 22:59:00,
2013-02-14 17:02:00,60.9,32.6,29.88,SSE,160,0.0,0.0,35,-99.99,,,-99.99,WSDL version 423,2013-02-14 23:02:00,
2013-02-14 17:04:00,60.8,32.7,29.88,South,169,0.0,0.0,35,-99.99,,,-99.99,WSDL version 423,2013-02-14 23:04:00,
2013-02-14 17:06:00,60.6,32.9,29.88,SE,146,0.0,0.0,35,-99.99,,,-99.99,WSDL version 423,2013-02-14 23:06:00,
2013-02-14 17:11:00,60.4,32.6,29.88,SSE,155,0.0,0.0,35,-99.99,,,-99.99,WSDL version 423,2013-02-14 23:11:00,
2013-02-14 17:12:00,60.3,32.5,29.88,SE,135,0.0,0.0,35,-99.99,,,-99.99,WSDL version 423,2013-02-14 23:12:00,
2013-02-14 17:17:00,60.0,32.6,29.88,South,183,0.0,0.0,36,-99.99,,,-99.99,WSDL version 423,2013-02-14 23:17:00,
2013-02-14 17:18:00,59.9,32.7,29.88,SSE,160,0.0,0.0,36,-99.99,,,-99.99,WSDL version 423,2013-02-14 23:18:00,
2013-02-14 17:22:00,59.6,32.9,29.88,SSW,198,0.0,0.0,37,-99.99,,,-99.99,WSDL version 423,2013-02-14 23:22:00,
2013-02-14 17:23:00,59.6,32.9,29.88,South,180,0.0,0.0,37,-99.99,,,-99.99,WSDL version 423,2013-02-14 23:23:00,
2013-02-14 17:28:00,59.3,33.2,29.88,SE,135,0.0,0.0,38,-99.99,,,-99.99,WSDL version 423,2013-02-14 23:28:00,
2013-02-14 17:29:00,59.3,33.3,29.88,SE,135,0.0,0.0,38,-99.99,,,-99.99,WSDL version 423,2013-02-14 23:29:00,
2013-02-14 17:34:00,59.0,33.4,29.88,SE,135,0.0,0.0,38,-99.99,,,-99.99,WSDL version 423,2013-02-14 23:34:00,
2013-02-14 17:36:00,58.9,33.2,29.88,SE,135,0.0,0.0,38,-99.99,,,-99.99,WSDL version 423,2013-02-14 23:36:00,
2013-02-14 17:39:00,58.7,33.3,29.88,SSE,158,0.0,0.0,39,-99.99,,,-99.99,WSDL version 423,2013-02-14 23:39:00,
2013-02-14 17:44:00,58.4,33.5,29.88,SSE,155,0.0,0.0,40,-99.99,,,-99.99,WSDL version 423,2013-02-14 23:44:00,
2013-02-14 17:46:00,58.4,33.8,29.88,SE,146,0.0,0.0,40,-99.99,,,-99.99,WSDL version 423,2013-02-14 23:46:00,
2013-02-14 17:49:00,58.3,34.0,29.88,South,174,0.0,0.0,41,-99.99,,,-99.99,WSDL version 423,2013-02-14 23:49:00,
2013-02-14 17:52:00,58.2,34.3,29.88,SSW,195,0.0,0.0,41,-99.99,,,-99.99,WSDL version 423,2013-02-14 23:52:00,
2013-02-14 17:54:00,58.1,34.3,29.88,South,190,0.0,0.0,41,-99.99,,,-99.99,WSDL version 423,2013-02-14 23:54:00,
2013-02-14 17:56:00,58.1,34.3,29.88,SSE,152,0.0,0.0,41,-99.99,,,-99.99,WSDL version 423,2013-02-14 23:56:00,
2013-02-14 17:57:00,58.1,34.3,29.88,SSE,158,0.0,0.0,41,-99.99,,,-99.99,WSDL version 423,2013-02-14 23:57:00,
2013-02-14 18:01:00,57.9,34.1,29.91,SE,125,0.0,0.0,41,-99.99,,,-99.99,WSDL version 423,2013-02-15 00:01:00,
2013-02-14 18:02:00,57.9,34.1,29.91,SE,135,0.0,0.0,41,-99.99,,,-99.99,WSDL version 423,2013-02-15 00:02:00,
2013-02-14 18:03:00,57.8,34.0,29.91,SE,135,0.0,0.0,41,-99.99,,,-99.99,WSDL version 423,2013-02-15 00:03:00,
2013-02-14 18:08:00,57.4,34.0,29.91,SE,140,0.0,0.0,41,-99.99,,,-99.99,WSDL version 423,2013-02-15 00:08:00,
2013-02-14 18:09:00,57.4,34.1,29.91,SSE,152,0.0,0.0,41,-99.99,,,-99.99,WSDL version 423,2013-02-15 00:09:00,
2013-02-14 18:13:00,57.2,34.0,29.91,SSW,195,0.0,0.0,41,-99.99,,,-99.99,WSDL version 423,2013-02-15 00:13:00,
2013-02-14 18:14:00,57.1,34.0,29.91,SSE,155,0.0,0.0,41,-99.99,,,-99.99,WSDL version 423,2013-02-15 00:14:00,
2013-02-14 18:18:00,57.0,33.8,29.91,SE,135,0.0,0.0,41,-99.99,,,-99.99,WSDL version 423,2013-02-15 00:18:00,
2013-02-14 18:19:00,57.0,33.8,29.91,SE,135,0.0,0.0,41,-99.99,,,-99.99,WSDL version 423,2013-02-15 00:19:00,
2013-02-14 18:24:00,56.7,33.6,29.91,SE,135,0.0,0.0,41,-99.99,,,-99.99,WSDL version 423,2013-02-15 00:24:00,
2013-02-14 18:25:00,56.7,33.6,29.91,SE,135,0.0,0.0,41,-99.99,,,-99.99,WSDL version 423,2013-02-15 00:25:00,
2013-02-14 18:26:00,56.6,33.5,29.91,SE,135,0.0,0.0,41,-99.99,,,-99.99,WSDL version 423,2013-02-15 00:26:00,
2013-02-14 18:30:00,56.3,33.2,29.88,SE,135,0.0,0.0,41,-99.99,,,-99.99,WSDL version 423,2013-02-15 00:30:00,
2013-02-14 18:32:00,56.1,33.1,29.88,SE,135,0.0,0.0,42,-99.99,,,-99.99,WSDL version 423,2013-02-15 00:32:00,
2013-02-14 18:36:00,55.8,33.3,29.88,SE,135,0.0,0.0,42,-99.99,,,-99.99,WSDL version 423,2013-02-15 00:36:00,
2013-02-14 18:37:00,55.8,33.3,29.88,SE,135,0.0,0.0,42,-99.99,,,-99.99,WSDL version 423,2013-02-15 00:37:00,
2013-02-14 18:41:00,55.6,33.1,29.88,SE,135,0.0,0.0,42,-99.99,,,-99.99,WSDL version 423,2013-02-15 00:41:00,
2013-02-14 18:43:00,55.5,33.0,29.88,SE,135,0.0,0.0,42,-99.99,,,-99.99,WSDL version 423,2013-02-15 00:43:00,
2013-02-14 18:46:00,55.3,32.8,29.88,SE,135,0.0,0.0,42,-99.99,,,-99.99,WSDL version 423,2013-02-15 00:46:00,
2013-02-14 18:48:00,55.2,32.8,29.88,SE,135,0.0,0.0,42,-99.99,,,-99.99,WSDL version 423,2013-02-15 00:48:00,
2013-02-14 18:51:00,55.1,32.6,29.88,SE,135,0.0,0.0,42,-99.99,,,-99.99,WSDL version 423,2013-02-15 00:51:00,
2013-02-14 18:55:00,54.9,32.6,29.88,SE,135,0.0,0.0,43,-99.99,,,-99.99,WSDL version 423,2013-02-15 00:55:00,
2013-02-14 18:56:00,54.8,32.6,29.88,SE,135,0.0,0.0,43,-99.99,,,-99.99,WSDL version 423,2013-02-15 00:56:00,
2013-02-14 18:57:00,54.8,32.7,29.88,SE,135,0.0,0.0,43,-99.99,,,-99.99,WSDL version 423,2013-02-15 00:57:00,
2013-02-14 19:00:00,54.7,32.8,29.91,SSE,158,0.0,0.0,43,-99.99,,,-99.99,WSDL version 423,2013-02-15 01:00:00,
2013-02-14 19:04:00,54.5,32.7,29.91,SSE,158,0.0,0.0,43,-99.99,,,-99.99,WSDL version 423,2013-02-15 01:04:00,
2013-02-14 19:05:00,54.5,32.6,29.91,SSE,158,0.0,0.0,43,-99.99,,,-99.99,WSDL version 423,2013-02-15 01:05:00,
2013-02-14 19:09:00,54.1,32.7,29.91,SSE,158,0.0,0.0,44,-99.99,,,-99.99,WSDL version 423,2013-02-15 01:09:00,
2013-02-14 19:10:00,54.0,32.7,29.91,SSE,158,0.0,0.0,44,-99.99,,,-99.99,WSDL version 423,2013-02-15 01:10:00,
2013-02-14 19:15:00,53.7,32.5,29.91,SSE,158,0.0,0.0,44,-99.99,,,-99.99,WSDL version 423,2013-02-15 01:15:00,
2013-02-14 19:16:00,53.7,32.4,29.91,SSE,158,0.0,0.0,44,-99.99,,,-99.99,WSDL version 423,2013-02-15 01:16:00,
2013-02-14 19:20:00,53.6,32.3,29.91,SSE,158,0.0,0.0,44,-99.99,,,-99.99,WSDL version 423,2013-02-15 01:20:00,
2013-02-14 19:21:00,53.5,32.3,29.91,SSE,158,0.0,0.0,44,-99.99,,,-99.99,WSDL version 423,2013-02-15 01:21:00,
2013-02-14 19:25:00,53.4,32.3,29.91,SE,135,0.0,0.0,45,-99.99,,,-99.99,WSDL version 423,2013-02-15 01:25:00,
2013-02-14 19:29:00,53.4,32.7,29.91,SE,135,0.0,0.0,45,-99.99,,,-99.99,WSDL version 423,2013-02-15 01:29:00,
2013-02-14 19:31:00,53.3,32.6,29.91,SE,135,0.0,0.0,45,-99.99,,,-99.99,WSDL version 423,2013-02-15 01:31:00,
2013-02-14 19:36:00,53.1,32.4,29.91,SE,135,0.0,0.0,45,-99.99,,,-99.99,WSDL version 423,2013-02-15 01:36:00,
2013-02-14 19:37:00,53.1,32.4,29.91,SE,135,0.0,0.0,45,-99.99,,,-99.99,WSDL version 423,2013-02-15 01:37:00,
2013-02-14 19:41:00,52.9,32.2,29.91,SE,135,0.0,0.0,45,-99.99,,,-99.99,WSDL version 423,2013-02-15 01:41:00,
2013-02-14 19:46:00,52.9,32.7,29.91,SE,135,0.0,0.0,46,-99.99,,,-99.99,WSDL version 423,2013-02-15 01:46:00,
2013-02-14 19:48:00,52.8,32.6,29.91,SE,135,0.0,0.0,46,-99.99,,,-99.99,WSDL version 423,2013-02-15 01:48:00,
2013-02-14 19:51:00,52.7,32.5,29.91,SE,135,0.0,0.0,46,-99.99,,,-99.99,WSDL version 423,2013-02-15 01:51:00,
2013-02-14 19:53:00,52.7,32.5,29.91,SE,135,0.0,0.0,46,-99.99,,,-99.99,WSDL version 423,2013-02-15 01:53:00,
2013-02-14 19:56:00,52.7,32.5,29.91,SE,135,0.0,0.0,46,-99.99,,,-99.99,WSDL version 423,2013-02-15 01:56:00,
2013-02-14 20:02:00,52.7,33.1,29.91,SE,135,0.0,0.0,48,-99.99,,,-99.99,WSDL version 423,2013-02-15 02:02:00,
2013-02-14 20:04:00,52.7,33.3,29.91,SE,135,0.0,0.0,48,-99.99,,,-99.99,WSDL version 423,2013-02-15 02:04:00,
2013-02-14 20:07:00,52.5,33.4,29.91,SE,135,0.0,0.0,48,-99.99,,,-99.99,WSDL version 423,2013-02-15 02:07:00,
2013-02-14 20:09:00,52.5,33.3,29.91,SE,135,0.0,0.0,48,-99.99,,,-99.99,WSDL version 423,2013-02-15 02:09:00,
2013-02-14 20:12:00,52.5,33.3,29.91,SE,135,0.0,0.0,48,-99.99,,,-99.99,WSDL version 423,2013-02-15 02:12:00,
2013-02-14 20:16:00,52.5,33.5,29.91,SSE,158,0.0,0.0,49,-99.99,,,-99.99,WSDL version 423,2013-02-15 02:16:00,
2013-02-14 20:17:00,52.5,33.6,29.91,SSE,158,0.0,0.0,49,-99.99,,,-99.99,WSDL version 423,2013-02-15 02:17:00,
2013-02-14 20:19:00,52.4,33.7,29.91,SSE,158,0.0,0.0,49,-99.99,,,-99.99,WSDL version 423,2013-02-15 02:19:00,
2013-02-14 20:23:00,52.3,33.6,29.91,SSE,158,0.0,0.0,49,-99.99,,,-99.99,WSDL version 423,2013-02-15 02:23:00,
2013-02-14 20:25:00,52.2,33.7,29.91,West,268,0.0,0.0,50,-99.99,,,-99.99,WSDL version 423,2013-02-15 02:25:00,
2013-02-14 20:29:00,51.9,33.6,29.91,West,270,0.0,0.0,50,-99.99,,,-99.99,WSDL version 423,2013-02-15 02:29:00,
2013-02-14 20:30:00,51.8,33.6,29.91,West,270,0.0,0.0,51,-99.99,,,-99.99,WSDL version 423,2013-02-15 02:30:00,
2013-02-14 20:31:00,51.7,33.6,29.91,West,281,0.0,0.0,51,-99.99,,,-99.99,WSDL version 423,2013-02-15 02:31:00,
2013-02-14 20:35:00,51.6,34.1,29.91,WNW,293,0.0,0.0,52,-99.99,,,-99.99,WSDL version 423,2013-02-15 02:35:00,
2013-02-14 20:36:00,51.6,34.1,29.91,WNW,293,0.0,0.0,51,-99.99,,,-99.99,WSDL version 423,2013-02-15 02:36:00,
2013-02-14 20:41:00,51.3,33.9,29.91,WNW,293,0.0,0.0,51,-99.99,,,-99.99,WSDL version 423,2013-02-15 02:41:00,
2013-02-14 20:43:00,51.2,33.7,29.91,WNW,293,0.0,0.0,51,-99.99,,,-99.99,WSDL version 423,2013-02-15 02:43:00,
2013-02-14 20:46:00,51.1,33.6,29.91,WNW,293,0.0,0.0,52,-99.99,,,-99.99,WSDL version 423,2013-02-15 02:46:00,
2013-02-14 20:50:00,51.0,33.8,29.91,WNW,293,0.0,0.0,52,-99.99,,,-99.99,WSDL version 423,2013-02-15 02:50:00,
2013-02-14 20:51:00,51.0,33.7,29.91,WNW,293,0.0,0.0,52,-99.99,,,-99.99,WSDL version 423,2013-02-15 02:51:00,
2013-02-14 20:55:00,50.9,33.6,29.91,WNW,293,0.0,0.0,52,-99.99,,,-99.99,WSDL version 423,2013-02-15 02:55:00,
2013-02-14 20:56:00,50.8,33.6,29.91,WNW,293,0.0,0.0,52,-99.99,,,-99.99,WSDL version 423,2013-02-15 02:56:00,
2013-02-14 20:57:00,50.8,33.6,29.91,WNW,293,0.0,0.0,52,-99.99,,,-99.99,WSDL version 423,2013-02-15 02:57:00,
2013-02-14 21:01:00,50.6,33.4,29.91,WNW,293,0.0,0.0,52,-99.99,,,-99.99,WSDL version 423,2013-02-15 03:01:00,
2013-02-14 21:02:00,50.5,33.4,29.91,WNW,293,0.0,0.0,52,-99.99,,,-99.99,WSDL version 423,2013-02-15 03:02:00,
2013-02-14 21:07:00,50.3,33.5,29.91,WNW,293,0.0,0.0,52,-99.99,,,-99.99,WSDL version 423,2013-02-15 03:07:00,
2013-02-14 21:09:00,50.2,33.5,29.91,WNW,293,0.0,0.0,52,-99.99,,,-99.99,WSDL version 423,2013-02-15 03:09:00,
2013-02-14 21:14:00,50.0,33.3,29.91,WNW,293,0.0,0.0,52,-99.99,,,-99.99,WSDL version 423,2013-02-15 03:14:00,
2013-02-14 21:16:00,50.0,33.3,29.91,WNW,293,0.0,0.0,52,-99.99,,,-99.99,WSDL version 423,2013-02-15 03:16:00,
2013-02-14 21:19:00,49.9,33.2,29.91,WNW,293,0.0,0.0,52,-99.99,,,-99.99,WSDL version 423,2013-02-15 03:19:00,
2013-02-14 21:22:00,49.8,33.1,29.91,WNW,293,0.0,0.0,52,-99.99,,,-99.99,WSDL version 423,2013-02-15 03:22:00,
2013-02-14 21:27:00,49.5,33.1,29.91,WNW,293,0.0,0.0,53,-99.99,,,-99.99,WSDL version 423,2013-02-15 03:27:00,
2013-02-14 21:29:00,49.4,33.0,29.91,WNW,293,0.0,0.0,53,-99.99,,,-99.99,WSDL version 423,2013-02-15 03:29:00,
2013-02-14 21:33:00,49.4,33.3,29.94,WNW,293,0.0,0.0,54,-99.99,,,-99.99,WSDL version 423,2013-02-15 03:33:00,
2013-02-14 21:35:00,49.3,33.4,29.94,WNW,293,0.0,0.0,54,-99.99,,,-99.99,WSDL version 423,2013-02-15 03:35:00,
2013-02-14 21:39:00,49.3,33.4,29.94,WNW,293,0.0,0.0,54,-99.99,,,-99.99,WSDL version 423,2013-02-15 03:39:00,
2013-02-14 21:40:00,49.3,33.4,29.94,WNW,293,0.0,0.0,54,-99.99,,,-99.99,WSDL version 423,2013-02-15 03:40:00,
2013-02-14 21:45:00,49.3,33.4,29.94,WNW,293,0.0,0.0,54,-99.99,,,-99.99,WSDL version 423,2013-02-15 03:45:00,
2013-02-14 21:46:00,49.2,33.4,29.91,WNW,293,0.0,0.0,54,-99.99,,,-99.99,WSDL version 423,2013-02-15 03:46:00,
2013-02-14 21:50:00,49.1,33.3,29.91,WNW,293,0.0,0.0,54,-99.99,,,-99.99,WSDL version 423,2013-02-15 03:50:00,
2013-02-14 21:53:00,49.1,33.3,29.91,WNW,293,0.0,0.0,54,-99.99,,,-99.99,WSDL version 423,2013-02-15 03:53:00,
2013-02-14 21:56:00,49.1,33.4,29.91,WNW,293,0.0,0.0,54,-99.99,,,-99.99,WSDL version 423,2013-02-15 03:56:00,
2013-02-14 21:57:00,49.1,33.4,29.91,WNW,293,0.0,0.0,54,-99.99,,,-99.99,WSDL version 423,2013-02-15 03:57:00,
2013-02-14 22:00:00,49.0,33.4,29.91,WNW,293,0.0,0.0,55,-99.99,,,-99.99,WSDL version 423,2013-02-15 04:00:00,
2013-02-14 22:03:00,48.9,33.5,29.91,WNW,293,0.0,0.0,55,-99.99,,,-99.99,WSDL version 423,2013-02-15 04:03:00,
2013-02-14 22:08:00,48.7,33.8,29.91,WNW,293,0.0,0.0,56,-99.99,,,-99.99,WSDL version 423,2013-02-15 04:08:00,
2013-02-14 22:10:00,48.7,33.7,29.91,WNW,293,0.0,0.0,56,-99.99,,,-99.99,WSDL version 423,2013-02-15 04:10:00,
2013-02-14 22:14:00,48.6,33.6,29.91,WNW,293,0.0,0.0,56,-99.99,,,-99.99,WSDL version 423,2013-02-15 04:14:00,
2013-02-14 22:15:00,48.5,33.6,29.91,WNW,293,0.0,0.0,56,-99.99,,,-99.99,WSDL version 423,2013-02-15 04:15:00,
2013-02-14 22:20:00,48.5,33.7,29.91,WNW,293,0.0,0.0,57,-99.99,,,-99.99,WSDL version 423,2013-02-15 04:20:00,
2013-02-14 22:21:00,48.5,33.8,29.91,WNW,293,0.0,0.0,57,-99.99,,,-99.99,WSDL version 423,2013-02-15 04:21:00,
2013-02-14 22:23:00,48.5,34.0,29.91,WNW,293,0.0,0.0,57,-99.99,,,-99.99,WSDL version 423,2013-02-15 04:23:00,
2013-02-14 22:26:00,48.4,33.9,29.91,WNW,293,0.0,0.0,57,-99.99,,,-99.99,WSDL version 423,2013-02-15 04:26:00,
2013-02-14 22:28:00,48.3,33.8,29.91,WNW,293,0.0,0.0,57,-99.99,,,-99.99,WSDL version 423,2013-02-15 04:28:00,
2013-02-14 22:32:00,48.2,33.7,29.91,WNW,293,0.0,0.0,57,-99.99,,,-99.99,WSDL version 423,2013-02-15 04:32:00,
2013-02-14 22:33:00,48.2,33.7,29.91,WNW,293,0.0,0.0,57,-99.99,,,-99.99,WSDL version 423,2013-02-15 04:33:00,
2013-02-14 22:37:00,48.3,34.1,29.91,WNW,284,0.0,0.0,58,-99.99,,,-99.99,WSDL version 423,2013-02-15 04:37:00,
2013-02-14 22:38:00,48.4,34.3,29.91,WNW,290,0.0,0.0,58,-99.99,,,-99.99,WSDL version 423,2013-02-15 04:38:00,
2013-02-14 22:42:00,48.8,34.3,29.91,WNW,293,0.0,0.0,56,-99.99,,,-99.99,WSDL version 423,2013-02-15 04:42:00,
2013-02-14 22:43:00,48.8,34.2,29.91,WNW,293,0.0,0.0,56,-99.99,,,-99.99,WSDL version 423,2013-02-15 04:43:00,
2013-02-14 22:47:00,49.1,34.0,29.91,WNW,293,0.0,0.0,55,-99.99,,,-99.99,WSDL version 423,2013-02-15 04:47:00,
2013-02-14 22:49:00,49.3,33.9,29.91,WNW,293,0.0,0.0,55,-99.99,,,-99.99,WSDL version 423,2013-02-15 04:49:00,
2013-02-14 22:54:00,49.5,33.6,29.91,WNW,293,0.0,0.0,53,-99.99,,,-99.99,WSDL version 423,2013-02-15 04:54:00,
2013-02-14 22:55:00,49.5,33.5,29.91,WNW,293,0.0,0.0,53,-99.99,,,-99.99,WSDL version 423,2013-02-15 04:55:00,
2013-02-14 22:56:00,49.6,33.4,29.91,WNW,293,0.0,0.0,53,-99.99,,,-99.99,WSDL version 423,2013-02-15 04:56:00,
2013-02-14 23:00:00,49.6,33.1,29.91,WNW,293,0.0,0.0,52,-99.99,,,-99.99,WSDL version 423,2013-02-15 05:00:00,
2013-02-14 23:01:00,49.6,33.0,29.94,WNW,293,0.0,0.0,52,-99.99,,,-99.99,WSDL version 423,2013-02-15 05:01:00,
2013-02-14 23:03:00,49.7,32.8,29.94,WNW,293,0.0,0.0,52,-99.99,,,-99.99,WSDL version 423,2013-02-15 05:03:00,
2013-02-14 23:05:00,49.7,32.6,29.94,WNW,287,0.0,0.0,51,-99.99,,,-99.99,WSDL version 423,2013-02-15 05:05:00,
2013-02-14 23:07:00,49.8,32.4,29.94,WNW,283,0.0,0.0,51,-99.99,,,-99.99,WSDL version 423,2013-02-15 05:07:00,
2013-02-14 23:09:00,49.8,32.1,29.94,WNW,293,0.0,0.0,50,-99.99,,,-99.99,WSDL version 423,2013-02-15 05:09:00,
2013-02-14 23:10:00,49.8,32.1,29.94,WNW,293,0.0,0.0,51,-99.99,,,-99.99,WSDL version 423,2013-02-15 05:10:00,
2013-02-14 23:12:00,49.8,31.8,29.94,WNW,293,0.0,0.0,49,-99.99,,,-99.99,WSDL version 423,2013-02-15 05:12:00,
2013-02-14 23:14:00,49.8,31.5,29.94,WNW,293,0.0,0.0,49,-99.99,,,-99.99,WSDL version 423,2013-02-15 05:14:00,
2013-02-14 23:15:00,49.8,31.3,29.94,WNW,293,0.0,0.0,49,-99.99,,,-99.99,WSDL version 423,2013-02-15 05:15:00,
2013-02-14 23:17:00,49.8,31.0,29.94,WNW,293,0.0,0.0,48,-99.99,,,-99.99,WSDL version 423,2013-02-15 05:17:00,
2013-02-14 23:19:00,49.8,30.9,29.94,WNW,293,0.0,0.0,48,-99.99,,,-99.99,WSDL version 423,2013-02-15 05:19:00,
2013-02-14 23:20:00,49.8,30.8,29.94,WNW,293,0.0,0.0,48,-99.99,,,-99.99,WSDL version 423,2013-02-15 05:20:00,
2013-02-14 23:21:00,49.8,30.8,29.94,WNW,293,0.0,0.0,48,-99.99,,,-99.99,WSDL version 423,2013-02-15 05:21:00,
2013-02-14 23:26:00,49.8,30.7,29.94,NW,315,0.0,0.0,47,-99.99,,,-99.99,WSDL version 423,2013-02-15 05:26:00,
2013-02-14 23:29:00,49.7,30.4,29.94,WNW,290,0.0,0.0,47,-99.99,,,-99.99,WSDL version 423,2013-02-15 05:29:00,
2013-02-14 23:31:00,49.6,30.1,29.94,WNW,285,0.0,0.0,46,-99.99,,,-99.99,WSDL version 423,2013-02-15 05:31:00,
2013-02-14 23:32:00,49.6,30.0,29.94,WNW,287,0.0,0.0,46,-99.99,,,-99.99,WSDL version 423,2013-02-15 05:32:00,
2013-02-14 23:34:00,49.6,29.8,29.94,WNW,293,0.0,0.0,46,-99.99,,,-99.99,WSDL version 423,2013-02-15 05:34:00,
2013-02-14 23:37:00,49.6,29.8,29.94,WNW,293,0.0,0.0,46,-99.99,,,-99.99,WSDL version 423,2013-02-15 05:37:00,
2013-02-14 23:38:00,49.6,29.8,29.94,WNW,293,0.0,0.0,46,-99.99,,,-99.99,WSDL version 423,2013-02-15 05:38:00,
2013-02-14 23:39:00,49.6,29.8,29.94,WNW,301,0.0,0.0,46,-99.99,,,-99.99,WSDL version 423,2013-02-15 05:39:00,
2013-02-14 23:42:00,49.5,29.6,29.94,WNW,287,0.0,0.0,46,-99.99,,,-99.99,WSDL version 423,2013-02-15 05:42:00,
2013-02-14 23:44:00,49.5,29.6,29.94,WNW,293,0.0,0.0,46,-99.99,,,-99.99,WSDL version 423,2013-02-15 05:44:00,
2013-02-14 23:45:00,49.4,29.6,29.94,WNW,293,0.0,0.0,46,-99.99,,,-99.99,WSDL version 423,2013-02-15 05:45:00,
2013-02-14 23:47:00,49.4,29.6,29.94,WNW,293,0.0,0.0,46,-99.99,,,-99.99,WSDL version 423,2013-02-15 05:47:00,
2013-02-14 23:49:00,49.4,29.5,29.94,WNW,293,0.0,0.0,46,-99.99,,,-99.99,WSDL version 423,2013-02-15 05:49:00,
2013-02-14 23:50:00,49.3,29.4,29.94,WNW,293,0.0,0.0,46,-99.99,,,-99.99,WSDL version 423,2013-02-15 05:50:00,
2013-02-14 23:52:00,49.3,29.4,29.94,WNW,290,0.0,0.0,46,-99.99,,,-99.99,WSDL version 423,2013-02-15 05:52:00,
2013-02-14 23:54:00,49.2,29.4,29.94,West,270,0.0,0.0,46,-99.99,,,-99.99,WSDL version 423,2013-02-15 05:54:00,
2013-02-14 23:56:00,49.1,29.3,29.94,WNW,293,0.0,0.0,46,-99.99,,,-99.99,WSDL version 423,2013-02-15 05:56:00,
2013-02-14 23:57:00,49.1,29.3,29.94,WNW,293,0.0,0.0,46,-99.99,,,-99.99,WSDL version 423,2013-02-15 05:57:00,
2013-02-14 23:59:00,49.1,29.2,29.94,WNW,293,0.0,0.0,46,-99.99,,,-99.99,WSDL version 423,2013-02-15 05:59:00,